GFSFLT2_850_thetae_000.txt.gz
Theta_e
320 320 319 319 317 318 319 320 318 318 318 318 318 318 317 317 315 312 312 312 313 317 318 318 319 319 321 324 324 325 323 326
324 323 319 316 315 316 318 322 322 320 319 318 317 317 317 315 312 308 308 309 310 311 312 311 312 313 317 321 325 326 326 325
328 325 319 315 314 313 315 317 320 322 322 319 316 316 316 311 309 308 309 310 310 309 308 308 309 312 318 321 324 325 325 325
329 324 318 315 314 313 313 312 313 317 318 319 316 314 312 310 308 308 309 309 309 309 306 307 309 310 314 319 320 319 319 319
330 324 318 315 315 315 313 312 315 317 320 317 315 313 312 309 309 310 310 308 307 309 307 306 309 309 309 311 313 313 313 318
331 321 316 314 314 314 313 313 317 321 323 321 317 314 312 311 310 309 309 309 309 308 307 306 307 307 308 307 307 306 306 309
329 318 314 314 314 313 313 315 318 320 321 320 319 318 316 315 309 307 308 308 308 309 309 307 306 304 304 304 304 303 304 305
323 315 314 314 313 313 313 313 314 315 316 317 318 316 312 309 307 307 307 308 308 308 308 306 305 304 305 305 305 306 306 306
318 315 314 313 312 312 312 311 311 311 312 313 313 312 310 309 308 307 307 307 307 307 306 305 304 304 305 306 306 306 305 305
316 315 313 312 312 312 311 311 311 310 310 309 309 308 308 308 307 306 307 307 305 304 304 304 304 305 306 306 305 304 305 305
315 314 312 312 313 313 312 311 311 311 311 310 309 308 308 308 307 306 307 307 306 305 305 305 306 306 306 305 304 305 305 304
315 313 312 314 313 313 312 312 312 312 311 311 311 310 309 308 307 307 307 307 306 306 305 305 305 305 305 304 304 304 303 304
314 313 314 314 313 313 313 312 312 312 312 311 311 311 310 309 308 308 307 307 306 306 306 306 305 305 305 304 304 304 302 303
313 313 313 313 313 312 312 312 312 312 312 312 312 311 310 310 309 309 308 307 307 306 306 306 306 305 305 304 303 303 303 303
313 313 313 313 312 312 311 311 312 312 312 311 311 309 309 309 310 309 307 307 307 306 307 306 306 306 305 304 302 302 303 302
313 313 313 313 312 313 312 312 311 311 310 309 309 308 308 308 308 309 309 307 307 306 307 307 306 305 304 303 302 302 301 300
313 313 313 313 313 312 311 311 310 310 309 308 307 306 306 306 307 306 306 307 306 306 308 305 306 305 303 302 300 298 297 297
314 313 312 312 311 311 310 308 308 307 305 304 303 303 304 304 304 303 304 305 305 305 305 304 302 300 297 296 296 295 294 294
311 311 311 310 309 309 308 307 305 303 302 301 301 302 303 302 302 302 304 303 302 303 301 299 297 298 298 299 299 298 298 298
311 310 309 308 307 305 304 303 302 301 300 300 300 302 302 301 301 302 302 301 299 298 298 298 297 298 299 298 299 299 297 292

GFSFLT2_850_thetae_003.txt.gz
Theta_e
320 318 317 316 316 316 318 320 319 318 318 317 317 316 317 317 316 311 308 308 310 311 312 313 313 315 318 321 323 324 324 324
322 321 318 316 315 314 314 315 319 319 319 318 316 315 316 316 312 310 308 309 310 310 309 308 309 310 313 318 321 326 326 326
327 324 318 314 313 312 309 309 312 314 316 319 316 314 314 314 309 308 308 309 310 310 310 307 306 308 310 314 320 323 324 325
328 325 318 314 313 312 310 309 311 314 317 316 318 316 313 311 309 308 309 310 310 308 308 309 306 308 309 311 317 320 320 320
329 327 317 314 314 314 312 311 312 314 316 317 316 314 312 311 309 310 310 309 310 309 309 308 306 308 309 309 308 307 307 306
331 326 314 313 313 313 313 313 314 316 316 316 317 318 317 316 315 313 308 307 308 309 309 309 309 307 306 306 306 305 305 304
331 324 314 313 312 312 313 313 313 314 314 315 316 315 315 314 310 308 308 307 307 308 308 308 307 306 304 304 304 304 305 305
330 319 313 312 312 312 312 311 311 311 311 311 312 313 312 311 310 308 307 307 307 307 307 307 306 305 304 304 305 306 306 306
327 315 312 311 312 312 312 311 311 311 310 310 309 309 308 308 308 307 307 307 307 307 306 305 304 304 304 305 306 306 306 305
324 313 312 311 313 313 312 311 311 311 310 310 310 310 309 308 308 308 307 306 307 307 306 305 304 304 304 306 306 305 305 305
317 312 311 313 314 313 313 313 313 312 311 311 310 310 310 309 309 309 308 307 307 307 307 306 306 305 305 305 305 305 304 304
316 312 312 314 314 313 313 312 312 311 311 311 310 310 310 310 310 310 309 308 308 308 307 307 306 306 306 305 305 305 304 304
314 313 314 314 313 312 312 312 312 312 311 311 311 311 311 310 310 310 310 309 308 307 307 307 307 306 305 306 305 305 304 304
314 313 313 312 312 311 311 311 311 312 312 311 311 311 310 309 309 308 309 309 310 308 307 308 308 307 306 306 306 306 304 304
313 313 312 312 312 312 312 312 312 312 311 311 311 309 308 307 306 306 307 306 307 309 309 307 308 308 307 306 306 305 305 304
312 312 313 313 312 312 312 311 310 309 308 306 306 305 304 303 302 303 304 304 304 305 306 306 306 308 306 306 305 305 305 305
313 313 312 312 311 311 310 309 308 306 305 304 303 301 300 300 300 301 302 302 302 302 303 304 304 305 306 305 304 304 302 300
312 311 311 311 310 308 307 306 305 303 302 301 300 299 299 299 300 301 301 301 302 302 302 302 302 302 302 301 302 300 299 297
312 311 310 309 309 307 305 303 302 301 300 298 298 298 298 300 301 301 300 301 301 299 298 298 298 298 298 298 298 298 297 297
311 310 309 310 308 306 303 301 300 299 298 298 298 298 299 301 300 299 299 298 297 298 298 298 298 297 297 298 297 297 297 298

GFSFLT2_850_thetae_006.txt.gz
Theta_e
321 319 317 316 315 315 316 319 319 318 319 318 317 316 316 317 316 313 309 309 310 310 311 309 308 309 310 312 316 321 329 330
323 320 316 315 315 312 313 314 317 319 319 319 317 315 316 316 314 310 309 309 309 309 309 309 308 307 308 312 318 321 326 328
325 323 316 315 314 311 311 310 313 314 315 317 318 320 316 315 311 309 308 309 310 310 309 308 309 307 308 309 315 323 324 324
326 324 318 315 314 314 313 311 322 318 320 317 318 315 315 313 312 310 310 311 308 308 309 309 311 316 317 313 319 316 320 321
329 327 318 314 316 322 325 325 324 325 316 318 322 317 323 324 324 323 320 315 317 315 313 317 311 310 315 310 311 310 316 316
333 329 316 314 322 325 325 324 324 325 326 317 325 325 325 324 323 320 319 319 315 318 318 309 308 308 307 305 305 307 311 313
335 332 315 313 312 323 321 320 324 321 325 324 322 323 323 321 319 318 318 318 318 319 318 314 308 307 306 305 306 306 306 310
336 331 314 312 316 312 317 313 317 320 320 319 310 313 319 318 317 316 316 316 316 317 316 311 310 307 308 305 306 308 309 307
334 328 313 312 312 312 312 315 311 318 317 310 310 310 313 311 316 315 315 315 315 316 315 311 308 309 307 306 306 307 308 306
332 321 313 311 313 314 316 318 313 317 314 312 311 311 310 310 316 316 315 314 315 316 315 314 313 310 309 309 309 308 307 306
330 318 318 315 314 316 313 313 314 315 313 313 311 311 311 310 311 313 313 313 313 314 315 314 313 311 309 309 309 308 308 307
328 319 316 312 314 314 313 312 312 312 312 312 311 311 311 311 311 311 312 315 315 314 314 314 313 311 309 309 308 309 308 307
323 321 312 313 314 313 313 313 313 313 312 311 311 311 311 310 309 309 308 312 313 310 313 314 314 313 311 310 309 309 309 308
318 315 313 313 312 311 312 312 312 312 312 312 311 310 308 305 303 304 307 309 310 311 312 312 313 313 312 311 310 310 309 309
315 313 312 312 312 312 312 312 312 311 310 308 308 306 304 301 300 300 300 302 307 308 309 310 310 312 313 311 311 310 310 309
312 312 312 312 311 310 309 310 310 308 308 307 305 303 300 300 299 299 299 300 304 305 306 307 308 308 310 311 311 310 310 309
312 312 311 311 310 310 309 308 308 308 307 305 303 303 301 300 299 298 299 301 303 301 302 305 306 307 307 308 309 309 308 308
312 311 311 310 309 309 307 307 308 307 305 303 303 302 302 302 299 299 301 301 302 302 302 302 303 303 303 303 303 303 303 305
312 312 310 310 311 309 308 306 305 305 303 303 301 301 301 301 299 302 302 301 301 301 301 301 299 298 299 299 299 299 299 299
312 311 310 310 309 306 303 304 305 304 302 300 299 299 299 299 301 301 301 301 301 301 300 299 298 298 297 297 297 297 297 296

GFSFLT2_850_thetae_009.txt.gz
Theta_e
327 324 316 315 314 313 314 318 319 319 319 319 318 316 315 316 316 311 309 308 309 309 309 309 309 308 307 308 311 316 321 330
330 329 328 329 324 309 309 311 316 319 320 320 319 318 320 316 316 312 308 308 310 309 309 309 309 309 309 308 309 319 326 325
330 329 328 327 326 316 317 315 316 320 321 320 322 328 327 326 323 314 310 310 312 310 309 309 310 315 317 315 311 323 323 323
332 332 329 326 324 327 327 325 327 328 329 329 328 328 327 324 324 321 321 320 316 319 318 316 319 319 318 319 319 320 318 319
330 334 329 327 326 326 326 326 326 327 329 329 328 327 327 326 325 324 323 321 321 320 321 320 320 316 316 316 317 317 316 316
330 334 326 323 327 326 326 326 325 326 327 327 326 325 325 324 323 321 320 319 320 320 320 320 319 314 313 311 313 311 312 313
330 333 327 326 326 327 326 326 325 322 325 324 322 323 323 321 320 319 318 318 318 318 318 318 316 314 312 312 312 312 312 312
330 332 329 325 325 325 325 323 322 321 320 317 313 320 321 320 318 318 317 317 317 317 318 318 316 314 313 312 312 311 311 312
331 331 329 324 324 323 321 320 319 320 319 319 317 315 316 317 318 318 317 317 317 317 317 317 317 316 314 312 312 312 312 311
329 330 326 323 322 321 321 320 320 320 319 318 319 318 317 315 317 317 317 317 317 317 316 316 317 316 315 313 312 311 311 311
328 331 322 321 322 321 321 320 319 317 316 316 316 313 314 311 312 314 315 317 316 317 316 316 316 316 315 314 312 311 312 311
327 329 321 321 322 321 318 317 317 316 316 315 315 314 313 312 313 313 313 314 314 314 314 315 315 315 315 314 313 312 311 311
327 323 321 319 318 317 316 316 316 316 315 315 314 313 310 309 310 310 310 310 309 307 309 311 312 313 314 315 315 313 312 311
322 319 317 316 316 316 315 314 315 315 315 313 312 311 309 309 307 307 307 307 306 306 307 309 310 311 312 313 314 314 313 313
318 317 316 315 314 314 314 314 314 313 313 312 311 310 308 307 306 307 307 307 307 307 307 307 308 309 309 311 312 312 313 312
316 315 315 313 312 313 313 313 313 312 312 311 309 307 306 305 305 306 306 305 306 306 305 306 306 306 307 307 308 310 311 311
316 315 314 314 313 312 312 313 313 312 311 308 306 306 305 304 304 304 304 304 305 305 305 305 305 305 305 306 307 307 308 308
315 315 314 313 313 313 313 312 311 309 308 307 305 304 303 303 303 304 304 304 304 303 304 303 303 302 302 302 301 301 302 301
315 314 314 313 313 311 310 309 309 308 307 305 304 302 302 302 303 303 303 303 303 303 302 301 302 301 300 299 298 298 299 298
316 315 314 313 312 311 310 309 308 306 305 303 301 301 301 301 302 302 302 301 300 300 300 300 298 298 298 297 296 296 296 296

GFSFLT2_850_thetae_012.txt.gz
Theta_e
317 315 315 314 311 311 312 315 317 317 319 319 317 316 317 315 314 313 309 308 309 309 309 308 308 309 309 309 308 309 313 324
330 329 326 328 324 308 308 310 313 315 318 317 326 329 327 326 322 318 313 311 312 313 313 312 311 312 317 316 312 316 324 323
329 328 327 327 325 324 323 323 328 327 330 324 330 328 327 325 323 325 323 321 319 319 319 317 319 319 319 318 316 322 323 320
330 330 327 323 325 328 327 327 327 328 328 327 329 326 328 326 326 325 323 321 320 321 320 320 322 320 317 317 318 319 319 314
331 330 327 329 324 327 327 327 326 326 329 326 327 325 326 325 324 323 321 320 319 319 320 320 320 318 313 311 312 313 314 315
332 330 323 320 329 328 327 327 325 326 325 327 324 323 323 319 321 317 319 318 318 318 318 318 318 318 314 313 311 311 310 312
330 329 325 326 321 327 324 325 326 323 324 323 311 316 317 318 318 318 317 317 317 317 317 317 317 316 314 313 312 312 312 311
330 333 329 325 327 325 325 322 321 321 321 319 313 312 313 313 313 314 316 317 317 315 317 317 317 318 317 315 313 312 311 310
330 333 332 325 324 322 322 321 320 320 320 320 319 315 313 312 312 313 315 315 314 313 316 317 316 316 317 316 315 313 312 311
330 332 331 327 324 323 321 321 320 320 320 318 318 318 313 313 312 312 313 313 312 312 313 316 317 316 316 316 316 315 313 312
329 331 328 324 322 322 322 321 319 318 317 317 316 315 315 314 312 310 310 310 310 310 313 315 316 316 315 314 315 315 316 313
328 331 325 321 322 322 320 318 318 317 317 316 316 315 315 311 310 310 310 310 308 310 311 309 308 309 313 314 313 314 314 312
327 327 323 322 321 320 317 317 316 316 316 315 314 313 312 311 309 309 308 308 308 307 306 306 307 306 310 311 312 312 313 315
321 320 318 317 317 316 316 315 315 315 315 314 312 312 311 310 308 306 306 306 305 304 305 306 304 305 307 309 310 309 309 311
319 318 318 316 315 315 315 314 314 314 314 313 312 312 312 307 306 305 305 305 304 300 304 305 307 307 307 307 308 307 309 309
317 316 315 314 313 313 313 313 314 314 313 313 312 308 306 306 305 304 304 303 303 305 306 305 304 305 305 306 306 307 305 307
317 316 315 315 314 314 314 313 313 311 309 309 308 306 306 304 303 303 302 301 302 304 304 304 304 304 304 303 302 302 301 302
316 315 315 315 314 314 312 310 310 309 309 307 306 306 302 301 300 301 301 303 303 303 303 303 303 302 301 300 300 299 298 299
316 316 316 315 314 313 312 311 310 309 307 306 304 301 301 299 300 301 302 302 301 301 301 300 300 300 299 299 298 298 297 297
316 316 315 314 313 313 312 310 308 306 305 304 301 300 300 300 300 300 300 299 299 298 298 298 297 296 296 296 296 296 296 296

GFSFLT2_850_thetae_015.txt.gz
Theta_e
315 315 315 311 308 308 309 311 312 314 316 315 322 324 324 324 319 318 316 315 314 313 314 314 313 313 315 315 314 322 325 325
327 323 326 323 313 309 309 311 313 322 322 327 327 325 324 324 326 324 323 319 319 319 317 318 318 318 316 316 316 322 324 322
328 326 324 325 324 325 323 322 321 321 324 328 328 326 325 325 325 324 322 319 320 318 317 318 319 319 316 312 315 319 319 320
329 325 323 325 325 327 327 326 327 328 327 325 327 325 327 325 324 322 321 319 318 317 317 317 318 318 316 312 310 312 315 317
328 320 325 326 324 327 327 326 325 328 329 324 322 325 325 324 319 316 315 316 317 317 317 316 317 318 316 314 312 310 309 313
330 323 319 326 328 326 327 326 325 328 325 322 314 317 316 313 313 314 315 317 317 316 315 314 315 316 316 315 314 312 311 309
331 326 315 319 328 327 327 326 326 322 321 319 312 312 313 312 312 312 313 314 315 315 314 313 315 316 316 317 317 316 314 312
330 329 326 316 321 322 319 320 320 321 320 318 316 313 312 312 312 312 313 313 314 314 314 313 315 316 316 316 317 316 316 314
331 329 326 325 319 318 320 322 319 320 320 320 318 317 317 314 314 313 313 312 312 311 310 310 313 313 316 316 316 316 316 315
331 326 324 324 324 320 320 321 320 320 321 319 319 318 317 315 314 311 310 311 311 310 309 311 312 315 316 316 316 314 314 315
330 329 326 324 323 322 321 321 319 318 317 317 317 316 315 314 313 311 312 310 309 309 308 309 311 310 307 304 303 307 311 307
330 328 325 323 323 322 321 320 318 318 317 316 316 315 314 313 312 312 312 310 308 307 306 305 304 303 303 302 302 302 305 308
328 323 322 322 322 322 320 318 316 316 315 315 314 314 313 313 312 310 307 307 306 305 304 302 299 300 302 302 302 302 302 303
323 323 322 319 318 317 317 316 315 315 314 314 313 313 313 312 310 306 306 305 305 304 303 301 303 304 306 307 306 304 303 303
321 319 318 317 316 315 315 314 313 313 314 314 313 312 311 308 306 306 305 303 303 303 300 302 305 305 305 304 305 305 303 303
316 315 315 314 314 313 313 314 314 313 313 311 309 308 307 307 306 304 301 300 300 299 303 305 304 304 304 304 304 303 300 300
315 315 315 315 314 314 314 313 311 309 309 309 308 308 307 306 303 299 298 301 302 303 303 303 302 302 302 301 300 300 299 299
316 316 316 315 314 314 312 311 311 310 310 310 308 306 304 300 298 299 300 301 301 301 301 299 299 299 299 297 297 297 298 298
316 316 316 316 314 313 312 312 311 311 310 308 305 301 299 299 299 298 299 299 299 299 299 298 298 297 297 295 295 296 296 295
315 315 314 314 314 313 311 310 309 308 306 303 300 299 299 299 299 296 296 297 297 297 297 297 296 295 295 295 295 295 295 295

GFSFLT2_850_thetae_018.txt.gz
Theta_e
314 313 310 308 308 308 309 310 311 312 311 314 319 318 318 319 320 319 319 316 317 316 315 316 317 317 315 315 316 324 324 324
320 322 319 313 309 309 310 311 315 316 320 321 322 320 322 321 321 320 319 318 317 316 314 314 315 315 314 311 314 321 322 321
324 321 323 325 325 323 322 321 320 319 321 323 320 322 324 320 319 319 318 317 316 315 315 314 315 315 313 312 311 314 318 317
327 319 323 325 327 327 326 324 325 325 325 319 318 322 322 321 320 314 313 315 315 315 314 314 313 314 314 314 313 311 309 311
328 317 318 324 326 327 326 325 325 327 325 321 318 319 317 316 313 312 312 314 314 314 314 315 313 315 316 316 316 314 313 310
328 319 323 323 326 326 326 325 325 327 325 322 316 317 316 313 312 313 313 314 313 313 313 313 312 313 316 316 316 316 316 315
329 318 326 325 325 326 326 325 325 325 323 319 313 313 312 313 314 315 315 315 315 315 314 313 311 312 314 315 316 316 316 316
330 324 316 323 327 327 326 326 324 319 319 319 318 316 314 314 314 314 315 313 313 312 311 311 310 310 311 312 314 315 316 317
331 329 325 321 322 324 321 321 319 319 320 320 319 318 316 316 314 313 311 311 312 311 311 310 309 309 309 311 315 315 315 315
330 329 324 323 325 320 320 321 320 319 320 320 319 318 318 317 315 314 312 312 312 313 311 310 309 307 307 306 305 303 303 303
330 329 327 325 324 322 320 321 320 319 318 318 319 318 316 315 314 313 313 314 312 311 309 306 305 303 302 301 301 302 302 301
330 328 324 325 324 322 321 321 320 317 316 315 314 313 313 313 313 313 313 311 311 307 306 303 302 302 301 301 301 301 301 301
326 324 324 323 323 320 320 317 316 315 314 313 313 313 313 313 313 312 310 307 306 305 303 302 302 300 300 301 301 301 304 305
323 317 321 321 318 319 317 315 314 314 314 313 313 313 313 311 309 307 306 305 304 302 301 300 298 300 303 303 304 302 302 303
318 317 317 316 316 315 314 313 313 313 313 313 312 311 309 308 307 306 305 303 300 298 297 298 301 303 303 303 303 303 301 301
314 314 314 315 315 314 314 313 313 313 313 312 310 310 309 308 307 305 300 296 295 298 301 302 302 301 300 300 301 300 299 299
315 315 315 314 315 315 314 313 313 312 311 311 310 309 308 307 301 296 295 297 298 299 299 299 299 298 298 298 298 297 296 296
316 316 316 316 315 314 313 312 312 311 310 309 307 307 307 301 297 297 298 297 296 297 298 298 297 297 297 297 296 296 295 295
316 316 315 315 314 313 313 312 311 310 309 308 307 304 300 299 298 299 296 293 295 295 295 296 295 295 294 294 294 295 295 295
314 314 314 314 313 312 311 309 308 306 304 304 302 301 300 299 299 294 292 293 293 293 293 292 292 292 292 292 292 293 293 293

GFSFLT2_850_thetae_021.txt.gz
Theta_e
315 313 311 310 309 309 309 309 310 310 314 318 317 319 318 316 316 314 313 314 312 311 311 311 312 312 311 310 314 321 322 323
314 312 308 307 307 308 309 310 313 316 318 319 319 321 319 316 315 315 315 315 314 312 312 311 311 311 311 311 310 312 318 320
318 317 318 315 315 317 317 317 318 318 320 320 321 321 318 317 316 314 314 314 314 313 313 313 312 312 312 310 311 311 309 309
318 319 321 322 323 323 322 321 319 322 321 317 317 319 319 316 315 313 314 315 315 315 316 316 315 313 315 315 312 310 311 311
322 320 324 326 325 323 322 320 322 322 321 316 315 316 316 315 313 313 315 315 315 316 316 316 315 312 314 316 316 315 313 312
325 318 322 324 326 324 324 324 323 319 321 317 312 313 313 313 313 314 315 316 316 316 314 314 312 311 311 313 314 315 316 316
328 320 322 321 325 324 323 323 324 323 320 317 314 313 314 313 313 313 314 314 313 312 311 311 311 311 311 310 311 314 316 315
329 321 324 323 325 326 326 325 325 320 320 319 319 318 315 314 314 314 313 312 311 311 312 312 312 311 311 310 309 311 315 315
329 323 326 325 327 326 325 325 322 319 319 320 319 319 318 317 317 315 314 312 312 313 313 313 312 310 308 307 305 305 304 303
328 324 324 325 326 325 323 321 319 320 320 319 319 319 319 317 315 315 314 313 313 313 312 312 308 306 304 303 302 301 301 301
328 321 324 325 325 323 322 322 320 319 320 320 319 319 317 315 314 313 313 313 311 309 307 306 305 303 302 302 302 302 301 301
327 326 326 325 324 323 322 320 319 318 318 318 317 315 314 314 313 313 311 308 307 307 306 305 304 301 299 298 298 298 299 302
327 326 324 324 324 323 319 317 316 315 314 314 314 313 313 313 310 309 308 308 307 306 305 304 302 297 297 299 298 301 300 299
320 322 324 324 322 317 318 318 315 314 314 314 313 312 311 310 311 310 308 307 306 305 302 297 295 297 300 301 301 299 301 299
317 317 317 318 317 317 315 314 313 312 312 312 312 311 309 308 307 307 306 303 298 295 294 294 295 296 299 299 299 299 298 298
314 314 314 313 313 313 313 313 312 312 312 312 310 309 309 308 307 306 299 295 294 293 293 294 296 297 297 297 297 297 296 296
315 315 315 315 315 315 314 314 313 312 311 309 308 308 308 305 303 299 297 296 293 293 294 296 297 297 297 296 296 296 295 296
315 315 315 315 315 314 313 312 311 310 309 309 307 304 301 300 300 299 298 294 292 292 293 294 294 294 294 293 293 293 294 294
316 315 314 313 313 313 312 311 309 305 302 302 302 302 301 300 299 299 295 292 292 292 292 292 292 291 291 291 291 291 291 292
313 313 312 311 311 310 309 305 304 302 302 303 302 302 301 300 299 296 293 292 292 291 291 291 290 290 289 289 289 289 291 291

GFSFLT2_850_thetae_024.txt.gz
Theta_e
316 316 315 314 312 311 310 310 311 313 318 317 318 317 314 313 313 312 312 311 310 311 311 311 310 310 310 310 309 311 316 319
314 312 309 308 308 308 309 310 313 318 318 318 318 316 315 314 313 313 313 313 312 312 313 312 312 312 311 310 310 311 309 309
312 309 308 307 308 309 311 315 318 319 317 318 318 317 316 316 313 313 313 313 314 314 315 314 313 312 312 312 311 310 310 311
317 317 314 314 315 315 316 316 317 317 316 317 317 318 316 315 313 313 313 314 315 315 315 315 313 312 311 311 311 311 310 309
317 319 320 320 319 317 318 318 320 320 318 315 316 317 317 316 313 313 314 314 314 314 314 312 311 311 311 310 310 310 311 311
319 320 322 324 324 322 321 320 321 321 321 317 314 315 316 315 313 313 314 315 314 313 311 311 312 312 312 311 310 310 310 312
322 319 323 325 326 325 325 324 324 323 323 319 316 313 315 313 313 314 315 315 312 311 311 313 313 313 313 312 309 307 309 312
326 320 324 325 326 326 326 325 325 325 323 320 319 317 316 315 314 315 314 312 311 312 313 313 311 310 308 307 305 303 302 302
328 323 326 326 325 326 326 325 325 324 324 321 319 318 318 318 317 316 315 314 313 313 312 309 308 307 306 306 304 303 302 302
328 325 326 326 326 325 324 325 323 322 323 321 319 319 319 318 317 315 313 312 311 309 308 307 307 306 306 305 305 304 303 302
328 325 325 326 324 322 323 322 320 321 321 320 319 318 317 315 314 313 314 310 309 308 308 307 306 305 305 303 301 299 298 298
327 325 324 325 325 324 322 321 318 318 318 318 317 316 314 314 314 311 310 309 308 308 307 307 305 302 299 296 295 295 296 300
326 324 325 324 323 321 318 317 319 319 315 314 314 313 313 312 311 309 310 309 308 307 305 300 297 295 294 294 294 297 296 295
324 323 324 321 321 320 319 318 314 313 312 312 312 312 312 311 310 309 308 308 307 300 295 294 293 293 294 294 296 295 297 298
318 319 320 318 316 314 313 313 312 312 312 312 312 312 311 309 307 306 303 301 298 296 294 293 293 293 294 296 297 297 296 295
314 314 314 314 314 314 314 314 314 313 313 312 311 309 308 305 301 299 299 298 297 294 292 292 293 294 295 297 296 296 295 294
315 315 315 315 315 315 314 314 313 312 311 310 308 303 303 302 300 300 299 299 294 292 292 292 292 293 293 292 292 292 292 293
315 315 315 315 314 314 313 312 311 309 305 302 302 301 300 301 300 300 299 299 294 292 291 291 290 290 290 290 290 291 291 291
315 315 314 313 312 311 310 308 305 303 301 301 301 301 300 300 300 300 299 296 294 296 292 291 290 289 289 288 289 289 289 289
314 313 310 309 307 306 304 302 302 303 303 303 302 301 301 300 300 299 299 297 296 294 291 290 289 288 287 288 288 288 288 288

GFSFLT2_850_thetae_027.txt.gz
Theta_e
334 324 319 316 315 313 310 311 312 317 316 317 315 313 312 312 312 311 310 310 311 311 311 311 311 311 311 311 310 309 309 309
321 317 316 315 313 310 310 312 317 317 318 316 315 314 313 312 312 311 311 311 311 312 312 312 312 312 312 312 312 311 310 309
316 313 312 310 309 310 312 314 320 319 318 318 316 315 314 312 312 312 312 313 313 314 314 313 312 311 312 312 312 312 312 311
310 308 308 308 309 311 314 320 320 319 319 320 319 317 316 315 313 314 314 314 315 315 314 312 311 312 313 313 313 312 312 311
314 312 310 311 313 317 319 321 321 319 319 319 319 319 318 316 313 314 314 315 315 314 312 311 313 313 313 312 311 311 311 310
319 318 319 320 320 322 320 322 324 323 322 320 318 319 319 317 314 314 314 314 314 312 311 312 313 313 312 311 310 308 307 306
321 323 324 324 325 325 325 325 326 326 325 322 318 318 319 316 315 314 314 314 313 311 312 312 312 310 309 308 307 307 307 306
322 323 325 325 325 326 326 324 325 327 325 324 321 317 318 317 315 315 315 314 314 313 312 309 308 308 307 307 307 306 306 305
325 323 324 325 325 325 324 320 323 325 324 322 321 318 318 318 317 317 315 313 313 312 310 309 308 308 307 306 306 305 304 302
327 324 325 326 325 320 320 319 322 323 322 322 321 319 318 318 316 314 314 313 312 310 310 309 309 307 305 304 303 301 299 298
327 326 323 325 325 322 322 321 322 322 322 320 319 318 317 317 315 314 313 311 309 309 308 308 305 303 300 298 297 296 295 295
327 326 324 322 320 321 323 321 320 318 318 319 317 315 315 313 313 311 308 309 308 308 305 301 297 295 294 295 294 294 295 298
327 327 325 322 323 323 321 317 318 319 313 313 313 313 312 311 309 308 308 307 304 300 299 297 295 294 295 297 296 295 300 295
327 326 324 322 320 319 318 317 313 313 312 312 312 312 310 309 308 307 303 299 299 298 298 297 295 293 293 297 298 297 298 297
323 323 322 317 316 317 314 313 313 313 312 312 311 311 309 308 306 302 300 299 299 298 298 295 294 294 292 296 297 297 296 295
315 315 314 315 315 313 313 314 313 313 313 312 310 309 306 301 301 299 299 298 298 298 297 295 292 294 294 295 294 294 293 294
314 314 314 314 314 314 314 314 313 312 311 309 305 302 300 298 298 299 299 299 299 298 296 295 291 291 293 292 292 292 292 293
315 314 314 315 315 314 313 312 311 309 305 302 301 300 300 301 300 300 300 299 299 297 296 294 291 290 291 291 290 290 290 290
315 315 315 313 312 311 309 307 303 301 300 300 302 302 301 301 300 300 300 299 298 296 296 293 290 290 289 289 288 289 288 288
315 314 311 308 306 304 301 298 299 301 302 302 301 298 297 299 300 300 299 298 296 296 294 292 290 289 288 287 287 288 287 287

GFSFLT2_850_thetae_030.txt.gz
Theta_e
335 332 327 322 318 315 312 313 311 314 316 317 315 313 313 312 311 311 311 311 311 311 312 312 312 312 312 312 313 313 317 316
334 332 329 324 316 313 312 313 318 318 318 317 315 314 313 312 312 312 312 312 312 312 313 312 312 313 313 313 313 316 317 317
330 331 330 327 324 312 313 317 319 320 320 318 317 325 321 319 312 312 313 313 314 313 313 312 312 314 314 314 315 315 316 316
329 329 322 314 319 313 317 322 326 326 326 323 327 320 320 314 313 313 314 314 314 314 313 311 313 314 314 313 314 313 314 314
325 313 311 312 320 322 324 327 328 325 322 324 323 322 320 323 317 318 314 315 316 314 313 312 312 313 313 311 311 311 311 311
312 310 310 312 322 324 325 328 327 327 325 322 322 325 320 319 319 315 315 315 314 312 312 312 313 312 311 310 309 310 309 309
316 314 316 319 322 323 322 325 327 327 326 324 321 322 319 318 316 316 315 314 313 313 313 313 312 310 310 310 309 309 308 308
321 320 323 324 325 326 326 325 326 326 325 323 320 320 319 318 317 316 316 315 314 313 313 311 310 310 309 309 309 308 308 307
322 323 323 324 325 323 320 319 319 319 321 322 321 321 319 318 317 316 316 314 313 312 310 310 310 310 309 308 307 307 306 306
324 323 323 324 325 320 320 321 319 321 322 322 322 319 318 318 317 315 313 312 310 309 309 309 308 307 306 304 304 303 303 305
326 325 323 325 323 320 318 321 322 322 321 320 319 318 317 315 314 312 310 309 309 308 307 305 304 304 303 301 301 301 300 302
326 326 325 324 322 321 321 322 321 319 318 318 318 316 314 313 312 311 309 308 306 305 303 302 302 301 301 300 301 300 301 303
326 326 326 324 322 323 322 319 318 317 317 314 313 313 312 311 309 308 308 307 304 301 301 301 300 301 301 300 300 301 303 303
326 326 326 323 321 321 319 317 317 315 314 313 312 311 310 309 309 307 306 303 303 300 300 299 299 299 300 299 299 299 299 301
328 327 325 320 318 317 317 317 314 313 312 311 311 310 309 305 302 302 301 299 300 301 300 299 298 298 298 298 299 298 298 297
327 324 320 317 316 317 317 316 316 314 312 311 309 308 304 302 299 298 298 300 301 300 298 299 297 297 297 297 297 296 296 295
323 320 317 314 314 314 315 314 313 311 310 308 307 306 304 302 301 299 299 301 301 300 299 299 297 296 296 295 295 294 293 293
316 315 314 314 313 314 313 313 311 309 307 306 304 303 303 303 303 302 302 301 300 299 298 297 297 295 294 294 293 293 293 292
316 315 314 314 313 311 310 308 305 304 303 303 303 303 302 301 302 301 301 300 300 298 297 297 296 295 294 293 293 292 292 291
315 315 313 312 309 305 301 299 304 303 304 303 301 300 300 300 300 299 298 299 298 297 297 296 296 295 294 293 292 291 291 291

GFSFLT2_850_thetae_033.txt.gz
Theta_e
334 332 328 321 317 316 313 313 311 312 316 317 314 313 312 311 311 311 311 311 312 312 312 312 313 313 313 314 316 316 318 319
334 330 329 321 318 315 313 312 314 317 318 316 314 314 314 313 313 312 312 313 313 313 313 312 313 315 314 315 316 317 317 317
333 331 331 330 319 313 313 317 318 320 319 318 322 326 325 325 314 312 313 313 314 314 313 312 314 316 315 314 315 316 315 315
332 331 330 327 323 314 319 321 324 328 327 325 328 327 327 324 313 313 314 314 315 315 313 314 316 316 315 314 314 314 314 313
331 330 328 324 323 325 326 328 328 328 329 328 326 327 328 327 323 321 321 318 320 317 317 316 316 315 314 314 313 313 313 313
328 327 325 325 324 325 327 329 329 329 328 325 327 325 328 325 322 321 320 319 317 317 317 316 315 314 313 313 313 312 312 311
325 324 324 326 327 328 329 329 327 327 326 324 326 325 324 324 322 320 318 318 318 317 316 314 314 314 313 313 312 312 311 311
324 325 326 328 329 329 327 328 328 328 324 326 323 320 319 323 321 319 318 317 317 315 313 313 314 313 312 312 310 309 309 308
326 327 329 330 329 327 324 319 319 318 319 321 322 321 320 320 318 318 317 315 313 313 313 312 312 311 309 308 307 304 306 304
328 328 330 329 326 320 319 319 319 321 321 322 322 321 321 319 318 317 314 312 312 312 311 309 308 307 306 306 303 303 304 303
329 329 328 325 325 320 320 320 318 322 321 321 321 319 318 316 315 314 312 312 311 309 308 307 306 305 303 303 302 302 303 302
331 329 323 322 323 323 322 319 320 321 320 319 318 317 316 313 313 312 311 310 309 308 307 305 303 302 302 302 302 302 302 303
331 330 326 325 324 324 321 323 321 318 317 317 315 313 312 312 312 311 309 308 307 306 304 302 302 301 301 301 301 301 301 303
329 329 326 326 326 324 322 320 318 317 316 314 313 312 312 311 310 309 308 307 305 303 303 302 301 300 300 300 300 299 301 301
329 329 327 327 325 322 320 320 318 316 314 313 312 311 310 309 308 307 305 304 302 303 303 301 300 300 299 299 299 299 298 298
330 329 327 324 321 320 319 318 317 317 316 314 312 310 309 308 306 305 304 303 303 303 302 301 300 299 298 298 298 298 297 296
328 326 323 321 320 319 319 318 317 316 314 313 311 310 308 306 305 305 304 303 303 302 302 301 299 299 298 297 296 296 295 295
326 321 320 319 318 318 318 317 315 313 311 309 306 305 304 305 304 304 303 302 302 302 301 299 299 298 298 296 295 295 294 294
323 319 318 318 317 317 316 313 310 307 307 305 305 304 303 302 302 301 301 301 300 300 300 298 298 298 297 297 295 294 293 293
318 318 317 317 315 313 310 307 306 306 306 305 302 301 301 301 299 299 299 299 298 298 298 298 297 297 297 296 295 294 293 293

GFSFLT2_850_thetae_036.txt.gz
Theta_e
332 331 329 322 317 315 314 312 310 310 314 314 313 312 311 311 311 311 311 311 312 313 312 312 314 315 315 315 316 315 317 316
332 330 325 319 316 314 313 310 311 316 315 313 313 313 313 312 312 311 312 313 313 313 313 312 316 316 315 315 315 315 314 315
331 327 321 317 314 313 312 313 317 318 315 325 327 326 326 325 312 312 313 313 314 314 314 315 316 316 315 315 315 315 314 313
328 331 327 318 313 313 317 319 320 322 319 328 327 327 327 323 319 314 315 316 318 317 317 317 317 316 315 315 315 314 313 313
332 331 327 324 317 321 326 327 328 328 328 327 327 321 326 326 323 323 321 320 320 318 317 317 316 315 314 314 313 312 312 312
330 328 324 324 325 326 327 329 328 325 320 322 320 326 327 323 323 322 320 319 319 318 318 317 315 314 314 313 312 312 311 310
323 320 325 322 326 328 329 327 324 323 324 321 326 325 326 323 322 320 320 318 318 318 317 314 314 314 313 312 311 310 307 307
318 314 323 327 328 327 327 325 325 326 325 326 324 322 321 322 321 320 319 318 318 316 314 313 313 312 310 309 308 307 305 304
324 325 328 329 326 327 325 322 319 318 318 319 322 324 322 320 320 319 318 319 316 314 313 312 310 309 308 305 305 304 302 303
327 329 330 329 327 325 319 319 318 318 319 321 321 322 321 321 320 319 318 315 313 312 310 309 308 306 304 302 302 303 301 303
328 330 329 327 325 324 320 319 318 318 319 320 321 321 320 319 318 317 314 312 312 310 309 307 305 302 300 301 302 301 302 302
329 330 327 326 324 321 320 321 321 319 321 321 319 318 317 316 314 313 312 311 310 309 307 305 302 302 301 301 300 301 301 301
329 330 327 324 323 324 323 321 321 322 319 318 316 314 313 313 313 312 311 309 308 306 304 304 303 301 300 299 300 300 300 300
330 329 328 324 326 325 324 322 320 318 317 314 314 313 313 312 311 310 309 308 306 303 303 303 302 301 300 300 299 299 299 299
329 329 328 325 327 324 322 319 319 318 316 313 313 312 312 311 310 308 307 305 304 303 303 302 302 301 300 299 299 299 298 297
329 329 326 326 325 322 320 320 318 317 316 314 314 313 312 310 308 307 305 305 304 303 303 302 302 301 300 299 298 297 297 296
329 325 326 326 323 320 320 320 318 317 316 315 313 312 309 307 306 306 305 305 304 303 302 302 302 301 300 299 297 297 296 295
328 328 326 323 320 320 320 319 317 316 313 312 309 307 306 305 305 304 304 303 302 302 301 301 301 300 298 299 298 297 296 295
328 324 321 321 320 319 319 318 316 314 310 308 306 306 305 303 302 302 299 299 299 299 299 299 299 299 298 298 297 297 295 295
325 321 320 319 319 318 316 313 310 307 307 307 309 303 302 301 300 298 298 297 297 297 297 298 298 298 298 297 296 296 295 294

GFSFLT2_850_thetae_039.txt.gz
Theta_e
330 324 327 319 316 313 311 309 310 311 313 312 311 310 310 310 310 311 312 312 312 313 312 314 316 316 316 316 315 314 314 313
323 326 323 317 315 311 311 309 311 314 312 313 313 312 311 312 311 311 312 313 313 313 313 314 316 316 316 316 316 315 314 313
328 328 320 316 313 312 310 312 316 313 317 323 318 320 323 315 312 312 313 313 316 317 316 316 316 316 315 315 314 313 312 313
329 323 318 315 312 311 313 317 315 318 325 325 323 324 322 321 320 319 319 319 319 317 317 317 317 315 314 314 313 312 311 310
325 327 320 313 311 316 318 319 320 320 322 327 325 322 323 325 322 322 320 320 318 317 318 317 317 314 314 313 312 312 310 309
328 326 321 313 314 321 324 326 324 327 325 328 326 324 325 325 323 322 320 319 319 318 318 318 316 315 314 313 311 309 308 306
328 327 324 321 325 328 326 328 326 324 322 323 325 327 327 324 322 321 320 319 318 318 318 317 315 313 311 309 306 305 306 303
329 323 324 325 327 327 330 328 325 321 322 324 328 327 326 323 319 320 319 319 318 318 316 314 312 310 307 303 303 304 303 301
322 321 323 326 329 328 328 325 322 323 322 320 322 324 322 322 321 321 319 318 318 316 313 311 310 308 303 301 302 302 301 300
313 322 326 329 328 326 325 321 320 319 318 319 321 320 321 321 321 319 318 317 315 311 311 310 308 304 300 299 299 300 299 300
321 327 327 327 325 323 323 320 319 318 320 319 321 322 321 320 318 316 315 313 312 311 310 308 305 302 300 299 299 298 300 301
325 327 325 325 324 323 320 319 319 321 320 320 321 320 318 313 312 312 312 311 311 309 308 306 303 301 301 300 299 298 300 300
325 324 325 325 323 323 320 320 322 321 321 319 318 313 312 312 312 312 311 310 309 308 305 303 301 301 301 301 299 299 297 299
328 328 327 327 323 323 322 323 321 320 319 316 312 312 312 312 313 312 311 310 309 306 303 302 301 302 302 301 299 298 298 297
330 329 327 326 324 325 324 321 318 317 314 313 313 313 312 312 312 311 309 306 304 304 302 302 302 302 302 301 299 298 298 297
331 329 329 327 327 326 322 319 316 314 315 315 313 313 313 311 308 306 305 305 305 304 303 303 302 302 302 301 300 299 298 297
330 329 327 326 327 324 321 318 318 317 316 315 314 313 309 307 306 306 306 305 305 304 303 301 302 301 301 301 299 298 298 297
330 329 326 326 326 323 320 320 319 317 316 314 313 310 310 307 306 305 305 304 303 301 297 299 299 299 299 299 298 298 298 297
329 328 326 326 323 321 320 320 318 317 315 312 308 306 306 306 306 304 303 302 297 295 296 296 297 298 298 298 298 298 297 296
327 328 327 324 322 320 320 319 316 314 312 311 309 307 307 306 304 302 298 296 295 295 294 294 295 296 297 298 297 296 296 296

GFSFLT2_850_thetae_042.txt.gz
Theta_e
330 326 321 318 315 311 308 308 310 312 311 310 311 311 311 311 312 312 312 313 313 313 313 315 316 316 316 315 315 314 314 313
322 320 319 316 314 311 308 309 313 312 311 311 311 311 311 311 312 312 313 313 313 313 314 316 316 316 316 314 313 311 311 310
322 322 317 317 313 310 309 313 313 312 311 312 313 312 313 311 312 312 313 315 316 316 317 317 317 317 316 313 312 310 310 308
322 326 319 315 312 310 312 314 312 313 317 317 319 321 319 318 317 318 318 318 318 318 317 317 317 317 315 313 311 311 310 308
328 322 318 314 312 311 315 314 321 322 323 324 322 322 323 322 322 320 319 319 319 318 317 317 317 315 314 312 311 309 306 305
325 321 317 313 311 315 316 316 320 325 327 326 324 325 326 324 322 320 320 319 318 318 317 318 317 314 312 310 307 303 303 304
326 322 315 312 317 319 320 323 324 324 326 327 326 324 326 324 322 321 320 319 318 318 318 317 316 312 310 306 301 300 302 301
327 321 314 315 322 324 325 325 325 324 324 326 323 325 325 325 323 321 319 318 318 318 318 314 311 310 308 302 299 299 300 299
327 324 323 325 327 326 326 327 327 326 323 322 323 326 325 325 321 321 320 319 318 318 314 311 310 309 304 299 299 299 299 298
327 324 323 325 326 327 329 328 326 324 322 319 319 321 323 322 321 321 320 319 317 313 311 310 309 305 301 299 299 298 300 299
326 323 324 325 328 328 328 326 324 321 318 319 319 320 321 321 320 319 317 314 312 311 310 309 306 302 300 300 300 298 299 300
322 322 324 328 329 328 326 324 320 318 319 319 319 321 321 320 318 313 312 312 311 310 309 308 303 301 300 300 300 299 297 297
315 321 325 325 327 326 324 324 321 319 321 320 320 320 319 313 312 312 312 311 310 309 308 303 301 300 300 301 300 299 297 298
317 318 320 325 325 324 322 321 319 321 321 320 319 316 312 312 312 312 312 311 310 307 303 303 301 301 301 301 300 299 298 299
325 324 323 325 325 324 323 322 322 322 320 318 316 313 312 312 312 312 310 307 306 304 304 303 303 302 301 301 300 299 300 299
327 327 326 326 326 323 323 323 324 322 319 315 313 313 312 313 312 309 307 307 306 305 304 304 303 301 301 301 300 300 299 298
328 329 329 328 327 324 325 324 321 318 315 315 314 313 313 313 310 307 306 306 305 305 304 302 299 298 299 299 298 298 298 298
330 330 329 328 326 325 326 324 319 317 316 316 315 314 311 310 309 307 306 306 304 302 300 296 294 295 296 297 298 298 298 297
329 330 328 328 326 327 325 322 319 319 319 317 315 312 311 310 307 305 304 304 302 298 294 293 293 294 295 295 297 298 297 296
330 330 329 328 325 326 324 321 320 319 317 316 313 311 307 305 305 305 301 298 297 294 293 293 294 294 295 296 297 296 295 294

GFSFLT2_850_thetae_045.txt.gz
Theta_e
331 330 320 314 310 308 307 308 311 311 310 310 310 310 311 312 312 313 313 313 314 314 316 316 317 317 315 313 312 310 310 308
325 319 315 312 309 308 308 309 312 310 310 310 310 311 311 312 312 313 313 313 313 315 316 317 317 317 315 312 310 309 308 307
322 320 319 314 312 309 309 313 311 310 310 310 310 311 311 312 312 313 313 313 315 317 317 318 318 317 315 312 310 309 308 306
320 319 318 315 312 309 312 313 311 311 311 312 316 313 312 312 313 313 314 316 317 318 318 318 317 317 315 311 310 308 305 303
320 321 316 316 312 310 315 313 317 316 320 323 322 320 320 318 319 318 318 318 318 318 318 317 317 316 313 310 308 304 301 302
321 316 315 315 312 313 314 314 321 324 324 324 323 321 322 322 321 320 319 318 318 318 318 317 317 314 311 309 305 300 300 301
325 319 318 315 311 316 317 325 325 326 326 325 320 324 324 323 322 320 320 319 318 318 317 317 316 311 310 307 301 299 299 298
323 320 317 314 312 317 317 324 324 324 326 325 324 322 324 324 323 321 320 319 318 318 317 316 311 310 309 303 299 298 298 298
324 321 317 313 316 318 318 323 325 325 322 323 322 322 324 325 324 321 320 319 318 317 317 312 310 309 304 299 299 298 298 298
325 318 314 314 322 325 326 326 325 324 324 323 323 324 326 325 322 320 320 319 318 317 312 310 309 306 300 299 299 299 298 299
326 322 319 319 325 326 327 327 327 327 325 321 319 321 325 322 321 321 320 318 316 312 310 310 308 301 300 299 299 298 299 297
327 324 323 324 326 326 326 328 328 326 322 318 319 320 321 321 321 320 318 313 311 310 310 308 302 300 299 299 298 298 298 297
329 326 323 324 325 327 327 328 327 324 318 319 320 320 321 321 319 315 311 311 311 310 308 303 302 300 299 299 298 298 299 298
328 326 324 323 323 326 328 327 325 320 319 320 320 320 320 318 313 311 311 311 310 307 305 303 302 302 301 300 299 298 298 297
322 321 320 321 324 327 327 325 324 320 320 320 320 318 316 313 312 311 312 311 307 306 305 304 303 303 302 300 300 299 299 299
322 316 316 320 324 328 327 326 322 321 322 321 319 317 313 312 312 312 311 307 306 306 305 304 303 301 299 297 299 299 299 299
324 319 317 320 324 328 327 325 323 322 323 320 318 315 313 312 312 311 307 306 306 305 305 303 299 296 295 295 296 297 298 298
325 324 325 324 326 327 326 323 322 323 320 319 315 314 313 312 311 308 307 306 304 304 301 298 295 293 293 293 295 295 296 298
325 326 326 327 327 327 326 325 324 323 320 316 315 315 313 312 310 307 305 303 305 301 299 297 293 292 293 294 294 295 297 296
326 327 326 328 329 328 327 324 325 323 320 317 316 314 313 311 309 310 304 303 300 299 297 293 292 293 295 295 293 293 294 294

GFSFLT2_850_thetae_051.txt.gz
Theta_e
334 329 319 314 309 308 309 311 310 309 311 312 313 313 313 314 314 315 315 315 316 316 317 316 315 312 310 309 308 306 304 303
331 326 320 315 310 310 315 311 310 309 311 312 313 313 313 313 313 313 314 314 316 317 317 317 316 314 310 309 307 304 302 302
328 321 319 312 311 311 313 311 309 310 311 312 312 312 313 312 313 313 313 315 317 317 317 318 317 315 311 309 307 303 301 301
317 316 315 312 311 314 312 311 309 310 311 312 312 312 312 313 313 313 314 316 317 317 317 317 318 316 311 309 307 302 300 300
320 315 314 312 311 315 315 311 310 310 311 311 312 312 312 313 313 313 315 317 318 318 318 317 317 317 311 309 306 302 300 300
316 313 313 315 316 315 312 311 310 310 310 311 311 312 313 312 313 316 317 318 318 318 318 317 317 316 311 309 307 301 300 299
315 315 316 317 315 312 311 311 310 310 311 312 311 312 313 317 318 318 318 318 318 318 318 317 317 316 310 308 304 300 300 299
318 318 317 314 313 310 312 311 311 312 316 320 319 320 320 320 320 320 320 319 319 318 318 317 317 313 309 307 301 300 299 298
318 313 312 311 312 310 312 312 313 319 323 324 323 322 323 322 322 322 320 320 319 318 318 317 314 310 308 303 300 299 298 298
320 317 315 312 310 310 314 314 320 323 324 324 323 322 321 322 323 323 322 321 319 318 317 315 310 309 304 300 299 298 298 298
316 316 317 316 315 313 313 314 318 324 324 321 322 322 321 321 321 323 321 319 318 317 316 311 310 306 302 300 300 298 298 298
321 319 319 319 317 313 313 316 322 324 323 323 322 323 320 319 322 322 320 320 319 317 313 310 308 305 302 302 300 298 298 298
324 324 323 321 316 313 313 317 316 318 324 323 323 322 318 319 321 322 321 319 318 314 310 310 306 306 304 302 301 299 298 298
322 325 324 320 315 313 316 318 320 323 324 325 324 321 318 319 320 321 319 318 315 311 310 307 306 305 303 301 302 300 298 297
322 324 324 324 319 316 316 322 324 325 325 324 324 320 318 320 320 319 318 315 311 311 309 306 305 304 302 303 302 301 298 298
323 323 323 325 325 322 321 322 324 323 323 324 323 319 319 320 320 317 314 312 311 311 307 306 305 305 304 300 296 294 298 298
326 325 325 325 327 327 324 323 323 324 324 324 321 319 319 320 319 315 313 312 311 308 306 306 309 305 302 298 297 294 293 296
327 327 327 327 327 326 325 324 323 323 323 325 323 320 319 319 316 314 312 312 310 307 307 307 306 308 305 301 296 295 296 296
328 327 327 327 327 326 325 323 323 324 325 324 323 321 319 318 315 313 312 311 312 309 309 306 307 304 298 295 293 293 293 292
329 329 328 327 327 326 326 321 322 324 326 324 323 321 320 318 316 314 313 313 312 307 306 306 302 296 293 292 293 293 293 291

GFSFLT2_850_thetae_054.txt.gz
Theta_e
334 328 327 316 318 309 311 314 310 309 310 312 314 313 313 314 314 315 316 316 317 317 316 315 312 310 309 307 305 304 313 315
329 327 325 314 312 311 310 314 310 310 312 313 313 313 314 315 315 315 316 316 317 317 317 316 314 310 309 307 305 308 312 313
329 327 316 312 315 312 312 309 312 313 313 313 313 314 315 316 315 314 315 317 317 317 318 318 316 312 309 308 306 308 310 311
329 320 318 317 314 313 312 312 313 313 313 313 316 317 319 315 313 314 315 317 317 317 317 317 316 313 310 308 306 304 306 306
321 317 313 313 315 314 315 316 313 312 312 313 313 313 313 313 314 315 316 317 317 317 317 317 317 316 311 308 306 304 304 304
316 316 316 318 314 312 312 311 313 311 312 312 312 312 313 316 318 319 316 317 317 317 318 317 317 317 311 309 308 303 302 303
317 316 314 314 314 315 314 313 311 313 312 312 312 314 313 315 317 317 317 317 317 318 318 318 316 317 310 309 305 302 301 304
317 315 315 316 315 316 314 312 312 312 311 312 312 312 312 314 316 318 318 318 318 318 318 317 316 314 310 308 302 300 300 302
314 315 316 316 316 315 319 318 318 314 315 311 312 314 315 318 320 320 320 319 319 319 318 317 316 312 310 306 302 301 300 300
318 318 318 319 320 316 320 319 313 318 313 319 321 320 320 320 321 321 321 321 321 319 317 315 314 309 307 304 303 302 300 299
320 320 318 319 321 314 311 315 314 315 321 323 323 323 322 322 322 322 322 322 320 318 317 314 311 308 306 305 305 303 302 300
320 321 320 317 320 313 313 315 317 318 322 323 323 323 323 322 321 321 322 321 319 317 316 316 310 307 305 306 306 304 302 302
323 323 322 324 323 322 319 316 319 317 321 324 322 322 322 322 321 321 322 320 318 317 316 312 309 307 308 309 308 305 303 302
324 324 325 326 325 324 321 320 321 319 321 321 322 323 322 322 320 321 322 321 319 316 314 310 309 307 309 308 310 308 304 303
326 327 328 328 326 325 322 321 321 318 316 317 322 323 323 320 319 320 321 320 318 316 313 310 310 308 308 308 309 309 305 304
324 325 326 328 328 325 323 321 321 321 319 322 323 323 323 319 319 320 320 319 317 315 311 310 309 307 307 307 307 303 304 305
326 326 326 327 328 327 326 323 322 324 324 324 323 324 322 319 319 320 319 319 316 312 311 310 308 308 308 306 303 303 303 302
330 328 327 327 327 325 326 327 325 326 322 322 323 324 323 320 319 319 318 317 315 312 311 311 308 309 307 307 303 302 301 299
331 329 329 328 327 326 326 326 326 326 325 321 323 324 324 322 319 319 316 315 314 312 312 309 307 307 306 302 297 298 298 298
330 329 329 329 327 326 326 326 326 326 325 323 324 324 323 320 319 318 315 315 312 311 308 306 306 305 300 293 297 298 298 297

GFSFLT2_850_thetae_057.txt.gz
Theta_e
332 329 327 321 322 319 313 314 313 313 312 314 316 315 315 314 314 315 315 316 316 315 314 311 310 308 307 306 309 315 317 318
331 328 325 320 317 318 314 319 318 314 314 316 316 314 314 314 315 316 316 317 317 317 317 314 310 309 308 307 311 312 314 316
330 328 328 325 315 312 314 317 317 316 317 315 314 314 314 316 316 316 317 317 317 318 318 317 312 310 308 308 309 311 311 313
329 328 326 320 318 316 317 317 316 316 315 314 314 315 320 316 315 316 317 317 317 317 318 316 314 312 310 310 309 308 308 309
328 325 321 322 317 314 314 315 318 315 316 319 316 317 322 316 315 315 316 317 317 317 317 316 317 313 310 309 308 307 307 307
324 320 316 315 316 320 320 319 315 313 313 314 316 319 319 314 314 316 316 317 317 317 317 318 317 316 310 310 307 307 306 307
319 315 317 319 319 314 312 312 313 312 313 318 313 318 319 318 320 320 319 319 318 317 318 318 316 315 310 310 306 305 306 308
316 316 317 316 312 313 313 314 313 318 320 315 314 321 320 321 321 321 320 319 318 318 317 316 314 313 310 308 306 306 305 306
315 315 317 316 314 312 313 316 320 320 317 314 318 322 321 321 320 321 320 319 318 317 318 316 314 312 310 309 307 306 305 306
317 317 316 315 314 315 318 320 318 316 319 322 321 320 316 317 322 320 319 319 319 318 318 316 315 313 310 308 307 306 306 305
317 317 318 316 316 317 320 321 317 320 320 323 319 314 317 319 321 321 321 320 320 320 317 317 315 313 310 309 309 308 306 304
320 320 318 320 319 320 321 321 322 320 321 323 320 323 324 322 323 324 322 321 321 320 318 317 315 313 308 308 310 309 307 306
322 321 321 322 322 322 321 320 320 321 322 324 324 323 325 325 324 324 322 321 318 320 319 316 314 312 311 312 312 311 309 307
322 321 321 322 321 321 321 320 320 322 323 325 324 324 324 324 324 324 321 320 320 320 318 316 314 312 312 312 313 313 309 307
323 324 324 324 324 323 322 321 320 321 323 324 321 322 322 322 322 324 321 320 319 320 317 316 314 312 311 312 313 312 310 309
326 326 325 326 327 326 325 323 321 321 323 324 322 317 318 320 322 322 321 320 319 320 318 316 314 313 311 310 311 309 308 309
326 327 327 328 328 327 327 325 323 323 324 325 322 318 321 323 323 322 320 319 319 318 316 315 313 312 310 309 310 307 307 307
327 327 327 327 327 329 328 327 326 323 324 327 326 324 323 323 322 320 319 319 318 317 315 313 313 311 309 308 308 306 306 305
329 329 328 328 328 328 329 329 329 328 326 327 325 324 325 322 322 322 319 319 316 314 314 313 311 310 308 308 306 303 301 302
332 331 331 330 329 330 330 330 330 330 329 328 327 326 324 323 323 323 318 315 314 314 313 310 310 307 307 307 303 301 302 301

GFSFLT2_850_thetae_060.txt.gz
Theta_e
327 333 333 332 331 324 314 309 310 313 314 317 319 320 321 320 315 315 316 316 316 314 311 309 308 307 308 315 317 318 319 319
327 327 324 327 326 321 319 319 319 315 318 322 321 320 317 315 315 316 317 317 317 317 313 309 308 308 310 312 314 314 316 316
328 326 327 325 326 321 317 317 317 318 322 320 317 317 316 315 316 316 317 317 318 318 316 311 310 309 309 309 311 311 313 314
328 328 327 325 324 319 314 314 316 321 319 317 316 316 315 315 316 317 317 317 318 318 317 314 313 312 310 309 309 308 308 308
328 328 326 324 321 315 315 313 315 319 316 314 316 316 316 315 315 316 317 317 317 317 317 316 314 312 310 309 307 307 307 307
327 325 324 321 317 315 314 314 318 318 319 319 319 318 316 315 315 316 317 317 317 318 317 317 316 313 311 309 307 307 307 307
324 324 323 321 314 315 314 316 319 318 318 316 316 315 316 315 314 315 317 318 318 318 318 318 316 314 310 310 309 307 307 308
323 321 320 317 316 315 315 318 315 314 314 315 315 316 317 317 320 320 319 319 318 318 318 317 314 316 311 310 309 307 306 309
318 317 317 316 314 318 317 312 312 313 315 315 316 319 316 321 322 321 321 320 319 318 318 316 315 312 312 309 308 308 309 308
317 316 316 316 318 318 313 313 313 315 317 317 316 321 321 319 320 320 321 320 319 318 318 317 315 313 311 309 308 309 310 310
316 317 317 318 317 315 312 314 315 318 318 320 320 315 318 317 322 322 321 320 319 319 319 317 317 314 312 310 309 308 309 307
317 316 315 315 314 315 318 320 317 317 318 321 323 320 316 315 318 321 322 321 321 320 319 318 317 316 313 309 309 310 310 310
316 316 316 315 316 317 320 322 321 316 320 319 321 319 319 322 323 322 323 322 322 321 320 319 317 315 313 310 311 312 312 311
319 317 316 317 319 318 322 320 317 315 318 320 321 321 321 322 322 324 324 323 323 319 320 320 318 316 315 312 313 313 312 311
321 318 319 321 324 321 321 320 319 319 320 320 323 321 320 321 322 321 323 324 321 319 319 319 317 315 313 313 313 313 312 311
322 321 321 321 322 322 321 322 322 321 320 322 322 320 321 322 323 322 320 320 321 320 319 319 316 315 313 312 311 312 312 310
323 322 322 323 323 324 324 323 322 321 321 323 324 324 322 319 321 319 320 320 322 321 320 319 314 314 313 313 312 310 310 307
325 324 325 325 325 324 326 327 325 323 323 323 324 324 323 319 318 319 322 323 322 321 320 318 314 314 314 312 312 309 309 306
326 325 326 326 327 328 328 326 328 326 324 324 324 325 325 323 322 322 322 322 321 320 319 315 314 314 313 312 307 307 307 306
327 327 326 327 328 328 328 329 328 327 326 325 325 325 325 325 323 322 322 322 320 319 318 314 314 313 312 308 307 307 306 306

GFSFLT2_850_thetae_063.txt.gz
Theta_e
333 326 330 331 335 328 322 314 312 321 316 322 325 324 320 314 315 316 315 314 311 309 308 307 310 316 317 319 320 318 317 315
330 328 325 323 323 323 321 316 317 324 322 323 325 324 321 315 315 316 316 316 313 309 308 308 310 314 316 314 316 317 315 314
328 326 325 325 323 323 322 318 318 321 324 325 325 325 320 316 316 316 318 318 315 310 309 309 309 311 312 312 311 313 313 311
328 325 325 325 324 322 322 312 316 322 323 322 321 321 317 315 317 317 318 318 318 315 312 311 311 311 309 311 310 309 309 308
328 327 326 326 324 322 321 314 314 319 322 321 318 317 315 316 317 317 318 318 318 317 315 313 312 310 309 308 308 308 308 308
328 328 327 324 323 322 318 314 317 319 318 317 315 315 315 315 316 317 317 317 317 318 318 316 315 310 309 308 308 307 308 308
327 327 324 323 318 315 318 320 318 315 317 318 318 316 315 315 314 314 317 317 318 318 318 318 316 312 311 309 308 307 308 309
324 324 323 319 315 314 313 314 317 318 317 315 315 316 317 314 314 314 316 318 318 318 318 318 317 316 310 310 310 308 308 310
323 324 321 317 317 315 316 318 320 317 314 315 317 317 318 314 313 318 319 320 319 318 318 317 317 317 313 310 310 309 307 308
323 322 318 315 314 314 319 317 316 314 314 315 317 316 314 314 319 321 321 320 320 319 318 318 317 315 313 313 310 309 309 308
319 317 316 315 315 315 316 316 313 314 316 318 314 314 314 320 320 321 321 321 321 319 319 318 317 315 314 313 311 309 310 310
317 317 316 314 314 317 317 315 313 313 318 318 315 315 315 318 320 319 321 321 321 320 320 319 317 316 316 313 311 308 309 312
317 318 317 317 318 318 314 312 313 313 316 315 319 319 320 317 314 317 319 320 321 321 321 320 318 317 316 312 309 308 312 312
317 317 317 318 316 314 313 316 314 314 314 318 319 320 321 318 316 318 320 322 322 322 322 321 320 318 316 313 311 311 312 312
316 316 316 316 316 317 318 320 320 320 316 319 319 320 319 319 318 319 320 322 323 322 322 321 319 319 315 314 313 313 313 313
316 316 315 316 318 318 319 321 321 318 314 314 316 318 319 320 320 320 321 321 322 321 321 322 320 320 317 313 312 312 311 311
316 316 316 319 320 322 322 321 320 317 318 320 319 319 320 321 321 321 321 322 323 321 320 321 321 319 318 314 313 312 312 310
318 316 317 317 320 322 323 322 321 321 321 321 321 322 322 323 323 323 322 322 322 320 321 322 321 320 318 314 313 313 311 309
323 321 318 321 323 322 322 324 324 323 322 322 321 321 322 322 323 323 321 320 319 322 323 322 320 319 315 313 314 312 311 308
325 324 323 322 322 324 324 323 325 327 325 324 323 323 323 323 324 324 322 321 322 322 321 320 320 316 314 314 314 313 310 307

GFSFLT2_850_thetae_066.txt.gz
Theta_e
334 331 327 322 322 331 324 318 309 320 327 327 323 318 314 314 315 314 312 309 308 308 317 316 317 318 319 319 317 315 312 305
333 332 327 325 321 324 320 318 316 322 326 327 325 317 315 315 315 314 311 309 308 307 313 316 316 316 317 317 316 314 312 308
331 330 329 325 323 323 322 322 321 324 325 326 325 316 315 316 315 316 314 310 308 308 309 314 316 315 314 313 313 312 310 308
330 328 326 324 323 323 323 317 321 322 323 323 323 316 315 316 317 318 317 314 309 309 309 310 313 313 313 311 310 309 308 308
327 326 325 325 324 323 320 321 317 317 321 323 322 316 316 317 318 318 318 318 316 313 311 311 310 309 310 310 308 308 309 308
327 325 325 324 323 323 319 316 322 322 321 322 319 315 316 317 318 318 318 318 318 317 316 313 311 309 308 309 308 308 309 310
327 326 326 324 322 321 317 325 322 323 321 317 317 315 316 315 316 317 318 318 318 318 318 316 313 310 308 308 308 308 309 311
327 326 325 324 322 319 317 320 319 320 319 316 315 315 314 315 314 315 317 317 318 319 318 319 316 313 310 309 309 310 309 311
325 326 324 324 322 320 314 317 318 318 317 316 315 315 315 314 314 314 316 317 318 318 318 319 318 317 312 310 310 310 309 310
323 323 323 320 317 317 320 318 317 318 317 317 318 317 317 314 314 317 318 318 319 319 318 319 318 317 316 313 311 310 310 309
322 322 322 315 316 320 320 320 319 316 315 316 315 315 316 315 318 318 318 318 320 320 319 319 318 317 316 316 316 316 310 310
321 322 319 317 314 315 317 320 317 316 315 314 315 316 315 316 316 315 315 320 320 321 320 319 319 318 316 316 316 314 311 309
320 320 318 316 315 316 316 316 316 315 314 314 318 317 315 314 313 314 317 318 318 320 320 320 320 318 317 314 314 313 311 308
318 318 316 315 314 315 316 315 315 314 314 316 318 319 319 315 314 315 313 315 320 321 321 321 320 319 317 315 314 312 310 309
318 317 317 315 315 315 317 316 315 314 314 316 317 316 317 318 318 318 315 318 320 320 322 322 322 321 318 316 313 312 312 311
318 318 318 317 316 318 317 314 314 314 313 315 315 313 315 316 317 317 317 319 319 319 321 322 322 322 318 317 317 314 313 312
318 318 318 318 317 315 314 314 313 313 314 315 312 313 317 318 318 318 317 319 320 320 321 322 322 321 320 320 318 316 313 312
317 317 317 316 315 315 316 317 317 316 314 313 313 312 315 316 317 319 319 320 320 320 322 322 321 320 320 319 318 317 314 313
316 316 316 315 316 318 316 317 318 318 317 316 316 318 319 320 320 321 322 323 323 322 323 322 321 320 320 319 316 315 313 312
316 316 315 316 316 318 319 320 321 321 321 321 321 321 321 321 321 322 323 323 323 323 322 321 320 322 320 318 316 314 313 313

GFSFLT2_850_thetae_069.txt.gz
Theta_e
332 332 328 326 327 325 331 329 329 328 323 319 318 314 313 313 313 311 312 318 319 318 319 320 320 319 318 315 313 309 306 305
332 331 327 325 324 324 328 327 328 330 321 319 317 314 314 313 311 309 309 316 318 317 317 317 318 318 316 315 312 310 306 305
330 330 327 327 326 321 324 329 329 329 325 320 315 314 314 312 310 309 307 309 317 317 316 316 314 315 314 313 311 309 308 305
330 329 329 328 324 323 323 322 323 325 324 321 315 314 313 311 310 308 307 307 312 316 316 316 315 314 312 310 309 308 308 306
327 326 326 324 324 323 323 320 321 323 324 319 315 315 313 314 311 309 308 308 309 312 314 313 313 312 311 309 308 308 309 308
326 326 324 323 323 322 320 321 321 322 321 319 315 315 316 317 317 314 313 311 310 310 310 310 310 309 309 308 308 308 310 310
326 326 325 324 323 321 318 317 320 321 320 319 315 316 317 318 318 318 318 317 318 316 313 311 311 310 308 308 309 309 310 311
325 326 325 324 323 322 320 319 318 320 322 318 315 317 317 317 318 318 318 318 318 318 318 317 311 310 310 310 309 309 309 311
324 325 326 324 323 320 318 317 317 320 321 320 315 316 316 317 317 317 317 318 318 319 319 318 314 313 310 310 310 310 310 310
324 324 324 323 322 317 323 324 324 324 321 317 315 315 315 315 315 316 315 316 318 318 319 319 318 318 316 313 310 310 310 310
323 322 323 322 320 321 324 323 322 319 318 317 315 315 314 314 314 314 314 316 318 319 319 319 319 318 316 315 315 316 316 310
322 322 323 322 319 317 319 320 320 319 317 315 315 315 316 315 315 317 317 318 318 319 320 319 319 318 317 315 314 314 314 313
321 322 322 320 319 318 321 319 319 319 317 317 317 317 316 316 317 318 318 317 315 317 320 320 319 318 317 315 314 314 313 313
320 321 322 317 318 320 319 317 318 316 315 317 318 316 315 315 318 319 317 315 314 317 320 321 320 319 318 317 316 314 313 312
319 319 320 317 316 320 319 319 318 316 315 315 315 314 315 315 318 317 316 315 316 317 320 321 321 320 319 317 315 315 315 315
318 320 318 317 316 314 315 317 318 316 315 314 314 315 316 318 319 319 318 318 318 316 318 320 321 322 321 320 318 316 316 314
318 318 318 316 315 314 315 316 315 315 315 314 314 315 316 315 316 317 316 317 320 319 319 319 320 321 322 322 321 318 317 314
318 318 318 317 315 314 315 315 316 316 316 316 313 314 315 315 313 313 315 318 319 320 321 321 321 321 322 322 321 319 319 316
317 318 318 318 318 316 316 317 317 316 315 315 314 314 315 314 311 312 314 316 318 320 321 322 321 322 321 322 320 320 317 316
315 316 317 318 318 317 316 315 314 314 314 314 314 314 313 312 312 313 317 319 320 322 322 322 322 322 322 322 320 319 317 315

GFSFLT2_850_thetae_072.txt.gz
Theta_e
335 333 331 332 328 328 325 330 330 329 317 318 319 315 314 317 314 316 316 317 318 320 320 319 317 315 312 309 306 305 305 305
335 332 331 329 329 328 325 325 330 329 318 322 318 315 312 312 314 317 317 317 318 319 319 318 318 315 313 310 306 305 305 305
333 331 329 328 326 324 324 324 328 325 324 321 315 313 313 313 314 317 317 317 318 318 318 318 316 314 312 309 308 305 306 305
331 330 329 329 327 324 326 328 326 322 322 319 315 313 313 311 313 317 317 317 316 316 316 315 314 312 310 308 309 307 306 306
328 328 328 329 326 323 327 327 325 326 319 317 313 313 311 308 307 310 316 316 316 315 315 314 313 311 309 308 309 308 307 306
326 326 327 326 323 323 323 325 326 323 319 317 314 312 309 308 306 306 310 314 314 313 312 312 311 310 308 309 309 310 310 309
325 325 324 324 323 323 323 325 323 321 320 316 314 311 309 308 308 308 308 310 310 311 310 310 309 309 309 309 310 310 311 311
324 325 324 324 323 323 322 323 323 321 320 315 315 315 314 310 309 309 310 310 310 311 311 310 309 309 309 310 310 310 311 311
323 324 325 324 323 321 320 321 321 321 319 315 315 316 317 317 317 315 317 317 317 318 318 314 310 310 310 310 310 310 310 311
323 324 324 323 323 319 321 321 323 321 321 315 314 316 315 317 316 317 318 318 318 318 319 318 315 314 311 310 310 310 310 310
323 324 323 324 322 320 318 320 320 320 318 316 315 315 316 317 317 317 317 317 318 318 319 319 318 318 316 313 310 311 312 310
322 323 322 323 322 320 319 318 318 321 318 316 315 315 315 316 315 316 316 317 318 319 318 318 319 318 317 316 314 313 313 312
321 322 322 322 321 318 319 320 321 319 320 316 315 315 315 314 314 314 317 317 318 319 319 320 319 319 318 317 316 315 315 315
320 321 322 322 321 320 322 322 321 321 320 317 315 315 315 315 315 315 317 318 318 319 319 319 320 320 319 318 317 316 317 317
320 321 322 322 321 319 318 319 321 318 317 316 315 316 315 315 316 315 317 318 318 318 318 319 319 320 320 318 317 317 318 318
318 320 320 322 320 319 318 319 319 318 317 316 316 317 317 316 316 315 314 317 319 319 317 315 317 320 321 320 319 318 317 317
319 319 321 321 317 318 320 319 316 317 317 315 316 318 318 317 315 314 314 316 320 320 320 319 319 319 320 321 321 320 319 317
318 320 321 319 317 317 320 318 316 317 316 315 315 314 315 314 314 315 315 315 315 317 318 318 320 320 320 321 321 321 320 320
317 318 320 319 317 316 315 316 318 318 316 315 315 315 315 314 314 315 315 314 313 314 316 318 320 321 321 321 321 321 320 320
316 317 318 319 318 317 315 315 315 316 317 316 315 316 316 314 314 315 315 314 312 313 314 317 320 321 321 321 321 321 320 319

GFSFLT2_850_thetae_075.txt.gz
Theta_e
331 331 329 329 326 327 328 330 330 328 325 322 316 316 320 318 320 316 318 319 319 318 316 309 309 306 306 305 306 306 307 315
330 330 330 329 328 328 328 328 327 331 328 324 319 318 318 318 316 317 318 319 319 318 316 314 312 309 306 306 306 306 306 311
332 331 330 330 329 329 330 327 324 327 330 325 319 317 316 320 314 317 318 319 320 319 318 315 312 310 307 306 306 306 306 313
332 331 331 330 329 328 326 325 325 328 328 323 317 316 317 314 316 318 318 319 320 319 318 315 312 309 308 307 306 307 307 309
331 331 330 329 328 329 327 325 324 329 326 323 317 314 314 315 316 318 318 319 320 318 317 314 311 309 309 309 308 307 307 309
329 327 326 328 328 327 325 327 327 324 320 318 315 313 313 314 316 317 316 316 316 315 314 312 310 309 309 309 308 307 308 308
326 325 324 325 326 323 327 327 327 323 321 317 314 313 312 312 311 316 316 315 315 314 313 312 310 309 309 309 311 311 311 311
325 324 324 324 323 326 326 326 325 319 316 316 313 313 311 308 311 313 315 314 314 312 311 310 309 310 309 309 310 311 311 312
322 323 325 323 323 323 325 325 324 318 315 316 313 311 310 307 307 310 311 311 310 310 310 309 310 310 309 309 309 310 311 311
324 323 324 323 323 322 323 324 322 319 317 313 311 313 308 308 309 312 312 310 311 312 309 310 310 310 309 309 309 309 309 310
322 323 323 323 322 321 323 324 319 318 317 312 314 310 308 315 315 315 316 317 317 316 315 316 313 312 310 310 309 309 309 309
323 323 322 323 322 321 321 322 321 320 315 312 311 315 317 317 316 317 318 318 317 316 318 318 318 318 316 315 313 312 312 313
322 322 322 322 322 319 321 321 323 317 318 312 316 316 316 318 317 317 317 317 317 317 318 318 318 318 317 317 316 315 315 314
321 321 321 322 323 320 319 320 321 319 319 315 316 316 316 317 316 314 314 315 318 318 319 319 319 318 318 318 317 318 318 317
321 321 321 322 322 322 320 319 319 319 320 315 315 315 315 315 314 314 314 316 318 319 319 319 319 319 320 319 318 318 319 319
320 320 322 321 322 322 319 320 319 319 318 316 315 316 315 314 314 314 316 315 317 316 316 317 319 319 319 320 320 320 319 319
319 320 322 322 321 321 321 321 320 321 319 317 315 315 316 315 315 315 316 315 316 315 317 319 319 320 320 318 320 320 320 319
318 320 321 321 321 321 321 319 320 320 318 317 316 315 315 315 316 315 316 317 315 317 316 317 317 317 316 319 320 320 320 320
317 319 320 321 321 319 319 319 319 320 318 317 316 316 315 316 318 317 316 316 316 316 315 315 316 317 318 319 319 321 321 321
316 318 319 321 320 318 318 320 319 318 317 318 317 316 316 317 318 317 317 316 315 315 315 313 313 315 315 317 320 320 321 321

GFSFLT2_850_thetae_078.txt.gz
Theta_e
335 333 329 331 330 328 330 330 332 331 329 330 328 325 324 325 327 324 325 327 320 315 307 307 306 306 306 307 309 320 321 319
331 331 331 330 328 328 329 328 330 329 328 326 326 325 324 326 326 325 320 321 321 312 307 306 306 306 306 307 308 318 319 319
331 330 328 329 328 327 328 329 328 329 329 328 325 322 325 325 323 319 317 319 317 311 311 308 306 306 306 307 316 318 319 318
332 330 330 329 329 328 328 329 328 328 329 327 323 321 325 326 316 319 318 319 317 315 313 310 308 307 306 311 317 318 319 319
330 331 328 329 330 329 329 329 328 329 327 328 325 322 322 324 317 319 320 319 318 316 313 314 316 316 314 317 318 318 319 319
330 329 329 329 329 329 328 328 328 325 327 326 324 324 326 321 318 323 321 321 319 317 317 318 317 316 316 316 317 317 318 318
329 329 327 325 325 328 328 327 326 325 326 324 319 319 321 318 317 322 322 323 321 320 320 317 311 311 312 315 316 317 318 318
326 325 326 323 325 325 325 327 326 325 322 319 318 316 315 317 316 317 320 323 322 320 319 315 313 314 315 313 315 317 318 318
324 326 323 324 324 325 326 325 324 321 318 316 315 314 313 313 315 316 316 317 317 318 318 315 314 314 314 313 315 317 317 318
323 324 323 324 323 325 325 325 323 319 317 314 313 314 313 314 314 315 315 314 313 313 316 314 314 314 314 314 315 316 316 316
322 324 323 324 323 323 324 324 322 317 315 313 311 310 309 310 309 310 311 311 310 310 310 310 313 313 314 314 314 315 313 315
322 322 323 323 323 322 323 323 319 316 314 314 311 312 315 314 310 310 310 310 313 313 313 310 312 312 311 312 312 312 313 314
321 323 323 323 322 322 323 321 318 315 315 314 314 311 315 309 311 314 313 316 318 318 316 313 314 314 312 313 313 312 312 313
322 322 323 323 322 321 323 321 317 319 316 311 308 309 310 310 313 315 317 317 318 318 317 316 317 316 316 318 318 316 316 316
323 321 323 323 322 321 321 322 320 320 315 310 308 310 315 314 316 317 317 316 315 317 318 318 318 319 318 319 319 319 319 319
320 321 322 321 322 321 321 321 322 316 315 311 314 316 317 317 316 316 317 314 314 316 318 319 319 320 319 319 320 320 319 321
320 321 322 322 321 321 321 321 321 316 317 314 316 316 316 316 316 314 314 314 314 317 318 319 318 320 319 319 319 319 319 318
320 322 322 321 323 322 322 321 320 319 319 316 315 315 315 315 316 315 314 314 316 315 316 317 317 319 318 318 318 317 320 320
318 321 321 321 322 322 321 321 321 320 319 319 316 315 315 315 316 315 314 315 316 315 316 317 318 317 315 317 317 316 320 320
316 321 322 320 322 320 321 321 321 321 320 320 318 315 316 315 316 316 315 316 316 317 317 317 319 315 314 315 316 318 319 318

GFSFLT2_850_thetae_081.txt.gz
Theta_e
332 335 335 333 330 327 326 329 326 332 331 330 331 329 326 326 328 330 328 319 312 312 311 310 310 309 311 317 321 322 321 322
334 334 334 332 330 328 325 327 329 333 329 331 326 330 326 328 330 327 325 318 316 313 310 309 307 307 309 315 321 321 321 321
331 333 333 332 330 325 328 329 330 332 329 330 325 327 326 328 327 325 326 320 314 307 307 306 306 307 308 316 320 320 320 320
331 331 333 333 330 329 329 329 330 331 331 328 327 327 325 325 326 327 327 322 310 307 307 306 307 308 312 319 320 320 320 320
330 332 330 331 331 330 329 328 329 329 329 329 329 328 325 322 328 327 324 319 310 309 307 309 316 315 317 320 320 321 320 320
331 330 330 329 329 329 329 329 329 329 329 329 328 326 326 325 324 323 321 316 313 311 311 318 318 317 319 320 320 320 320 319
330 329 330 329 327 327 329 329 329 328 328 327 327 327 322 322 320 322 320 320 319 316 320 319 319 318 319 319 320 320 320 319
330 329 329 327 326 326 326 327 329 328 327 328 326 325 323 319 317 322 322 322 321 320 321 320 319 318 319 319 319 320 320 319
328 327 328 326 324 325 326 325 325 325 326 326 326 324 320 319 320 322 324 323 322 322 320 317 317 318 318 319 319 320 320 320
327 328 325 324 326 324 326 326 326 325 322 324 320 319 321 319 318 320 322 323 322 320 318 316 317 317 318 318 319 319 320 320
327 326 324 324 324 324 324 323 323 322 323 319 318 320 317 313 316 320 320 321 320 319 318 317 317 316 317 317 318 318 319 319
326 324 324 323 324 323 323 322 322 321 319 318 318 315 313 313 315 316 315 314 314 312 315 316 316 316 316 316 317 317 318 318
325 323 322 323 323 322 322 321 319 317 315 314 314 313 313 314 313 314 313 314 315 311 311 313 314 315 314 315 315 316 316 317
325 323 323 323 323 322 323 321 319 313 313 313 314 314 313 312 312 312 313 314 312 312 314 314 316 316 316 317 317 316 315 315
324 321 324 324 323 322 322 322 317 314 313 312 310 311 311 313 314 314 315 314 316 317 317 319 321 318 318 321 321 321 320 317
321 321 323 323 323 323 321 320 317 315 313 312 313 314 314 315 315 315 312 318 319 317 318 318 320 319 318 319 320 321 320 318
321 321 324 323 323 322 322 320 317 315 315 314 314 314 313 314 312 314 315 317 317 317 317 317 318 320 320 319 319 320 319 319
322 321 322 322 323 322 322 321 319 317 318 314 310 308 309 310 313 316 317 316 316 316 316 317 318 318 318 319 319 319 319 319
323 323 323 322 322 322 322 322 320 318 318 313 309 307 310 314 316 317 317 316 316 315 315 316 317 317 317 318 318 318 319 319
323 323 323 322 322 322 321 322 322 321 318 314 310 310 313 316 317 316 315 315 316 315 316 316 316 317 317 318 317 319 319 320

GFSFLT2_850_thetae_084.txt.gz
Theta_e
329 331 336 335 333 331 328 329 328 324 325 324 328 325 329 328 327 333 332 330 321 312 312 312 311 317 323 324 323 322 322 322
340 334 334 335 333 331 330 329 325 326 325 328 331 329 328 327 328 330 330 328 313 311 312 312 309 317 321 322 322 322 322 320
330 336 334 333 332 329 329 325 325 325 328 332 331 329 329 328 324 325 328 318 312 312 310 309 308 313 318 319 321 321 320 320
330 332 333 332 331 330 327 327 328 329 325 331 331 326 327 326 329 329 324 315 314 310 309 307 307 309 318 321 321 321 320 320
330 333 331 332 331 330 330 330 329 330 331 328 329 327 327 324 324 326 323 318 307 308 307 307 307 314 320 321 321 320 320 319
332 331 330 330 330 330 330 329 329 330 331 330 328 327 327 326 324 326 325 314 307 306 307 309 307 318 321 321 321 321 320 317
330 330 331 330 329 329 329 329 329 329 330 330 329 329 328 324 324 325 324 313 308 307 317 317 311 319 320 320 321 321 320 315
329 329 329 329 329 327 327 328 329 330 329 329 329 328 327 324 325 323 324 313 310 317 320 318 317 319 319 320 320 320 320 315
330 328 327 327 327 327 326 325 325 329 329 329 328 327 327 325 324 323 319 315 313 321 320 319 319 319 319 319 320 320 320 318
330 327 327 325 326 324 324 325 325 326 326 327 328 327 328 324 320 319 321 321 319 322 320 319 318 319 319 319 320 321 320 320
329 326 325 325 324 324 324 325 325 325 325 326 327 327 324 322 320 318 323 321 322 321 318 317 317 318 318 319 320 320 320 320
327 326 325 325 324 324 324 324 322 323 324 323 325 324 323 320 320 321 322 320 322 319 317 316 317 317 318 318 318 319 318 319
326 325 324 323 324 323 323 323 321 321 320 321 322 320 319 319 318 319 320 320 321 318 317 316 316 316 316 317 317 318 318 318
326 324 323 323 323 323 323 323 322 322 321 319 321 319 318 318 317 314 316 318 317 313 314 313 312 315 316 316 316 316 317 317
324 324 323 323 323 323 323 322 322 320 319 318 318 319 318 315 314 315 314 313 314 315 314 312 315 315 315 315 317 317 316 316
324 325 323 322 323 323 322 321 321 320 318 318 318 316 313 313 314 314 313 313 315 316 311 312 316 315 315 318 318 320 319 318
325 325 323 324 323 323 322 321 320 317 316 315 314 313 313 314 315 314 314 313 315 313 313 317 320 320 317 319 319 319 319 319
324 324 325 324 323 322 323 322 319 315 314 314 313 312 314 312 315 313 312 314 316 316 317 319 319 319 318 319 319 318 319 319
325 323 324 324 323 323 322 322 321 318 315 313 312 311 312 311 312 314 314 314 315 318 318 317 317 317 318 318 317 317 317 318
325 323 324 324 323 322 322 321 321 320 317 314 314 312 313 313 314 315 315 313 314 317 316 318 317 317 317 317 317 317 318 318

GFSFLT2_850_thetae_087.txt.gz
Theta_e
323 325 333 335 335 332 333 333 332 331 329 326 324 327 330 325 329 332 332 331 321 326 326 323 321 326 326 324 323 323 322 320
332 333 334 336 336 333 331 330 330 328 325 324 324 325 329 326 326 325 332 331 320 320 320 315 324 325 324 323 322 322 321 319
328 335 333 334 334 333 330 330 329 326 326 326 326 325 332 329 325 327 326 329 319 314 315 313 325 323 322 321 322 322 321 315
325 334 333 333 332 331 329 328 325 325 326 327 327 329 327 326 325 326 329 326 312 313 314 314 322 322 322 321 321 321 319 318
325 329 332 332 331 331 329 326 326 328 326 326 328 330 328 326 324 324 328 319 312 312 313 312 318 316 321 321 321 320 320 320
326 327 332 330 331 330 330 328 327 329 330 326 324 328 328 325 325 325 325 316 313 313 310 309 311 320 321 321 322 321 320 319
325 328 329 330 329 330 330 329 329 329 329 326 329 328 327 327 325 324 323 317 309 310 307 307 317 320 321 321 321 321 320 317
329 325 330 330 330 329 329 329 329 329 330 329 329 328 327 327 325 324 324 318 307 307 307 311 320 320 320 321 321 321 320 317
330 329 325 328 329 328 327 327 329 329 329 331 329 328 328 327 325 324 325 319 307 311 312 314 319 319 320 320 321 320 320 317
330 329 327 325 326 326 327 326 325 328 329 329 329 329 329 327 326 324 323 312 311 319 317 313 317 319 320 320 320 320 319 317
330 330 327 323 324 324 324 323 323 325 326 329 329 329 329 327 326 324 319 310 320 320 318 319 319 318 319 319 321 320 320 319
329 328 326 323 324 323 324 322 323 322 324 325 326 328 328 327 325 320 318 314 320 320 319 319 318 318 319 320 320 320 320 319
328 327 326 324 324 323 323 321 323 322 322 324 324 324 325 325 323 322 318 316 321 320 318 318 318 318 319 319 319 319 320 320
328 327 325 323 324 324 323 321 322 321 322 324 326 326 325 325 321 318 317 321 321 319 317 317 318 317 318 318 318 319 319 318
328 327 323 323 323 325 323 321 321 320 320 322 323 323 323 321 320 322 321 321 320 317 316 317 317 317 317 315 317 317 318 318
328 325 321 322 323 324 322 321 322 321 321 321 322 323 323 321 320 321 320 320 320 317 315 313 314 314 315 316 315 315 316 316
328 325 320 320 322 323 321 321 321 321 320 321 320 319 320 320 320 318 316 315 317 313 313 313 315 314 315 315 315 318 318 317
327 325 319 323 322 323 321 321 321 321 321 318 320 318 318 318 316 315 315 315 314 313 314 314 313 314 315 314 315 318 319 318
328 326 320 322 322 322 322 320 321 321 321 319 318 318 317 314 314 314 313 313 313 314 315 313 313 315 318 316 316 319 319 319
329 326 319 323 322 321 321 321 321 321 320 320 318 317 314 314 315 315 314 314 313 313 314 315 315 318 319 319 318 318 318 317

GFSFLT2_850_thetae_090.txt.gz
Theta_e
324 324 330 335 335 335 333 333 334 334 333 331 331 329 327 328 331 329 329 328 329 327 327 326 326 326 325 324 323 323 323 321
322 322 327 333 336 334 333 333 334 333 332 330 327 329 327 327 329 331 330 328 327 327 327 326 327 327 327 325 324 322 321 318
325 323 327 336 336 335 332 331 332 331 329 327 326 325 326 325 329 330 332 329 323 327 326 325 327 325 324 323 322 322 321 316
330 325 328 333 333 335 334 331 330 329 325 325 326 325 325 330 329 324 326 326 319 326 323 325 324 323 323 322 322 321 319 311
331 326 328 332 332 332 331 330 329 325 326 326 326 326 325 328 327 323 325 327 318 320 318 325 321 322 322 322 321 320 317 311
330 326 326 330 331 330 330 329 327 326 327 326 329 327 329 327 326 324 324 328 315 316 314 324 321 321 321 321 320 320 319 317
329 322 324 330 329 329 329 329 328 327 329 324 328 325 327 325 324 322 322 326 314 315 315 323 322 320 321 321 320 320 319 319
327 321 325 327 329 329 329 330 329 329 329 325 325 326 328 326 324 323 326 323 312 313 312 321 319 320 320 321 321 320 319 319
328 324 325 328 329 329 329 329 329 329 329 329 326 324 328 326 326 325 323 318 314 312 309 315 318 320 321 321 321 320 320 318
329 326 327 325 327 327 327 328 328 329 329 329 328 328 328 327 326 325 324 318 310 309 307 310 320 320 320 321 321 320 319 317
329 326 328 327 324 323 325 326 327 327 328 329 329 328 328 327 327 325 323 318 308 307 307 319 320 320 320 320 320 319 319 318
329 327 329 327 324 322 323 323 325 324 325 328 329 328 328 328 328 325 324 319 307 309 314 319 319 319 320 320 320 320 319 318
329 328 328 327 323 322 322 322 322 322 323 323 324 329 329 327 328 325 324 309 312 314 312 313 318 319 319 320 320 320 319 319
330 329 327 326 324 320 322 321 323 321 321 323 323 325 328 327 326 325 323 308 320 318 318 318 318 319 319 320 320 320 320 320
330 329 326 326 323 323 323 321 320 320 320 321 323 324 325 327 327 325 318 312 318 319 319 319 318 319 319 319 319 319 319 319
330 328 327 325 321 323 321 322 320 320 320 322 322 324 324 324 326 321 317 313 320 319 320 318 318 318 319 318 316 317 318 318
329 328 327 324 319 322 322 321 320 320 320 320 321 321 321 321 321 319 317 316 320 319 318 316 317 317 318 317 316 315 316 317
329 328 326 322 319 324 322 323 321 321 321 321 322 321 322 322 321 321 317 321 318 319 317 317 317 316 316 317 315 316 316 316
329 328 325 321 318 321 323 322 321 321 321 321 321 322 322 321 321 322 319 321 320 319 317 316 316 316 316 314 315 316 316 317
330 328 325 321 317 320 323 323 321 321 320 321 321 320 321 321 320 320 319 319 320 318 316 313 313 313 313 314 315 315 316 317

GFSFLT2_850_thetae_093.txt.gz
Theta_e
325 327 332 334 334 335 335 335 336 335 333 331 328 329 327 326 325 325 329 329 329 328 328 328 327 327 326 325 323 322 325 325
325 324 323 329 335 336 335 335 333 333 334 332 330 330 328 326 325 324 331 328 329 329 328 327 326 325 324 323 321 323 321 323
324 324 323 325 331 336 335 334 334 333 333 333 330 330 329 328 324 325 330 328 328 328 326 326 325 325 324 324 323 322 320 318
329 329 326 326 330 334 335 333 332 333 333 331 328 328 328 328 326 325 325 328 324 327 326 326 327 326 325 324 322 321 320 316
330 330 327 327 329 333 332 332 332 330 329 327 325 326 325 326 325 325 326 327 326 326 326 327 327 325 324 323 322 320 316 314
331 329 324 326 330 332 333 332 330 329 327 326 326 326 326 325 325 325 328 325 327 327 326 326 325 324 323 322 321 318 314 311
330 327 321 324 329 329 331 330 329 327 326 327 327 327 326 328 325 324 326 325 325 327 325 323 322 323 322 321 320 319 318 312
330 326 320 322 328 328 328 329 328 327 326 327 325 326 326 325 327 325 322 327 322 326 323 322 322 321 321 321 320 320 319 317
329 327 321 319 326 327 328 327 328 329 328 328 326 325 324 322 323 325 323 327 319 318 324 321 321 320 320 321 320 320 319 317
329 328 324 321 325 328 328 328 328 328 329 329 326 324 324 326 325 325 321 326 317 316 322 321 320 320 320 320 321 320 319 317
329 329 326 324 324 326 327 325 326 327 327 328 328 326 325 327 326 324 323 326 317 317 319 322 320 319 320 321 321 320 319 317
329 329 327 326 326 325 324 323 324 326 327 329 328 328 326 327 327 325 325 324 316 315 313 321 320 320 320 320 320 320 319 317
330 329 328 327 327 325 323 322 322 323 325 326 328 326 328 327 328 326 326 324 317 314 312 316 318 320 320 320 320 319 319 317
329 329 328 328 327 324 322 321 321 322 322 323 324 326 327 327 327 327 326 325 315 311 308 313 319 320 320 320 318 318 318 318
329 329 329 328 326 324 322 320 320 320 321 321 321 322 324 325 327 327 327 325 316 309 308 319 319 319 319 320 319 319 319 319
329 329 329 328 325 324 319 321 321 321 319 320 320 322 324 323 323 326 326 325 318 309 308 319 318 319 319 320 318 319 320 319
329 329 329 327 325 324 319 321 321 319 319 320 321 321 322 323 322 326 325 324 316 312 312 315 315 318 319 319 319 318 318 318
329 329 329 327 325 322 319 321 321 320 319 320 320 321 322 323 325 323 324 325 313 316 317 316 316 317 314 313 319 317 317 317
329 329 329 327 325 320 319 320 322 321 320 321 321 320 320 321 322 323 322 320 316 316 316 315 317 315 314 317 318 315 316 315
329 329 329 327 324 319 318 321 321 320 321 321 321 322 321 321 321 321 320 319 318 318 317 319 317 318 316 315 314 316 316 315

GFSFLT2_850_thetae_096.txt.gz
Theta_e
325 327 328 331 334 335 336 336 336 335 332 330 328 330 327 325 326 325 325 327 327 328 328 327 328 328 328 329 326 327 326 325
323 325 327 330 334 335 335 335 336 336 334 332 329 328 327 326 326 325 324 327 331 329 326 327 328 328 328 326 325 325 325 325
323 323 323 323 327 335 335 335 335 333 333 333 331 328 327 328 326 325 325 326 327 328 325 328 328 327 325 323 320 322 323 324
324 326 326 326 325 328 334 336 335 333 333 334 331 330 329 329 329 327 326 327 325 327 328 328 327 325 324 322 322 322 321 322
326 328 328 327 327 327 332 332 334 333 332 331 331 331 330 328 327 324 325 328 327 328 327 327 326 324 323 323 322 321 320 319
328 329 329 326 327 327 330 331 331 333 333 332 331 328 326 326 328 326 325 326 329 327 327 326 326 324 324 324 322 320 318 318
329 330 329 324 326 326 330 330 331 332 330 328 326 325 326 326 326 326 326 326 328 326 327 326 326 326 324 323 321 318 314 311
330 330 328 323 323 323 327 331 331 329 328 326 326 326 326 327 326 325 326 326 326 326 327 326 326 325 323 322 321 318 317 312
330 330 326 323 322 324 325 327 328 328 327 326 327 325 325 325 327 326 326 325 324 326 326 326 324 323 323 321 320 319 318 316
329 330 327 323 323 325 325 326 326 327 328 328 327 324 323 323 322 324 326 324 324 326 326 325 322 322 321 321 320 319 319 317
329 330 328 324 323 326 326 327 326 326 327 328 328 325 324 322 321 322 324 323 326 326 326 324 321 321 320 320 320 320 319 317
329 330 328 326 324 326 326 327 325 324 325 326 328 327 326 325 323 324 325 322 325 324 324 323 321 320 320 320 320 320 318 317
328 330 329 327 326 325 325 325 325 324 324 325 326 326 327 326 325 326 325 323 324 321 321 321 320 320 320 320 320 319 318 317
327 330 329 328 327 325 325 324 322 322 322 323 324 327 325 327 327 326 326 324 326 320 319 321 319 319 320 320 319 318 318 317
327 329 329 329 327 326 325 323 322 322 321 322 323 324 326 326 326 326 327 325 326 321 319 319 319 319 320 320 318 318 318 317
328 329 329 329 328 327 325 323 321 320 321 320 320 323 324 323 326 326 327 325 325 324 318 317 319 319 320 320 319 319 318 318
328 329 329 329 328 328 324 323 320 320 320 319 320 320 321 322 323 324 326 325 325 324 318 313 313 317 318 320 320 319 318 318
329 329 329 329 329 327 324 322 319 321 320 319 320 322 320 322 323 322 325 323 324 324 318 312 308 316 317 319 320 319 316 314
329 329 329 329 329 327 324 320 320 321 319 320 321 321 322 321 322 322 323 322 323 322 318 311 312 316 316 319 319 319 313 312
328 329 329 329 329 327 324 319 320 321 320 319 321 321 321 321 321 322 323 323 323 322 316 311 312 315 317 318 319 315 312 313

GFSFLT2_850_thetae_099.txt.gz
Theta_e
322 323 325 330 333 335 335 335 334 332 329 329 329 330 329 328 326 326 324 325 323 323 327 328 329 328 328 327 327 327 328 326
324 324 324 328 330 331 334 335 336 335 333 332 330 329 329 328 326 322 323 326 324 323 326 326 328 328 328 328 327 327 327 325
325 326 326 325 331 331 332 335 335 336 336 333 332 329 329 327 323 324 326 325 325 325 323 326 326 328 330 329 327 326 326 325
325 323 325 324 327 327 331 335 337 338 335 334 333 331 329 327 325 326 325 325 326 325 328 326 325 329 329 327 325 321 324 325
325 324 325 326 326 326 327 330 333 334 335 334 332 332 330 328 327 326 328 326 327 329 325 326 328 329 327 324 321 322 323 324
326 325 327 328 327 326 325 329 332 332 333 332 331 331 330 329 328 329 327 327 327 326 325 326 327 327 325 322 322 322 321 322
326 326 328 329 327 326 326 329 331 331 330 332 330 330 330 330 329 328 326 328 328 326 325 326 327 326 324 322 322 321 320 320
328 326 329 329 326 324 325 328 331 330 329 330 331 329 328 325 325 325 327 325 326 328 326 326 326 325 324 323 322 320 316 317
329 326 329 329 325 323 324 327 330 330 331 330 328 326 326 326 325 327 327 327 326 326 326 326 326 325 325 324 321 319 316 314
330 326 329 330 325 322 323 324 326 330 329 328 327 326 326 324 326 327 326 326 326 326 326 325 325 326 325 323 321 318 317 315
330 328 329 330 325 322 324 325 326 326 325 326 327 326 325 323 326 326 326 326 325 327 327 325 325 325 324 323 320 319 317 317
328 329 328 330 325 323 324 326 326 325 325 326 326 328 325 323 322 322 323 326 324 325 325 325 324 323 323 321 320 318 318 317
326 329 328 330 326 324 324 324 326 326 324 325 326 328 326 324 322 321 322 324 324 324 323 322 318 320 322 320 319 319 319 317
319 327 328 330 328 326 325 324 325 326 325 324 324 325 326 327 326 323 324 324 323 325 322 323 322 319 321 320 318 318 318 318
318 322 327 330 329 327 326 325 324 324 323 323 324 325 325 324 327 326 325 325 323 321 324 323 321 321 320 320 318 318 318 318
318 323 326 329 329 328 327 326 322 321 321 322 322 323 324 326 324 327 325 326 325 322 323 323 322 320 319 320 320 318 319 318
318 323 327 328 330 328 327 327 324 322 321 321 321 320 322 324 324 325 324 327 325 325 323 321 321 320 319 319 320 319 318 318
320 322 325 329 330 329 328 327 323 322 320 320 320 319 320 321 323 323 323 325 326 326 324 321 319 320 320 319 319 319 319 318
322 321 324 329 330 329 328 327 323 321 320 321 320 319 320 319 322 323 322 325 324 324 324 324 322 318 318 319 319 317 315 318
323 321 326 328 329 329 328 327 323 319 320 320 320 321 321 322 322 323 322 321 321 323 323 322 321 318 317 316 317 316 318 318

GFSFLT2_850_thetae_105.txt.gz
Theta_e
321 321 322 324 328 332 333 332 330 329 328 329 332 332 333 333 331 330 329 329 327 326 327 326 326 328 328 329 329 329 332 331
322 321 322 323 325 330 332 333 333 332 330 329 331 332 333 334 331 330 328 328 326 326 327 327 327 328 327 328 328 328 331 330
329 330 326 323 325 326 331 333 334 334 332 331 331 332 332 333 333 332 329 328 326 327 326 328 327 326 325 326 327 328 331 330
342 342 343 339 328 331 328 330 333 335 335 333 331 334 333 333 333 332 330 327 326 325 326 327 326 326 326 325 328 330 329 329
342 343 343 342 340 341 339 338 337 338 335 336 334 334 334 333 333 332 330 328 327 326 326 326 326 326 324 326 328 330 329 327
341 342 343 342 340 340 328 335 336 336 334 334 335 335 334 334 334 332 331 329 329 328 326 326 326 325 325 326 328 327 328 326
341 341 343 342 340 340 338 336 327 326 334 334 333 334 334 333 332 332 332 331 329 326 326 326 327 325 326 327 328 328 326 325
341 341 342 341 340 339 336 330 323 321 331 334 331 333 333 333 331 331 329 328 327 326 327 328 327 325 327 328 328 326 325 325
340 342 341 340 339 339 338 337 334 321 328 331 331 331 333 332 330 331 330 328 326 328 329 328 327 329 328 327 327 325 324 324
337 341 341 338 339 339 338 336 335 330 330 330 330 330 331 331 331 330 330 329 329 329 328 327 326 327 328 327 326 324 322 323
334 340 341 338 339 338 338 336 335 333 332 332 329 330 329 331 330 329 329 329 327 326 326 326 326 327 328 326 324 323 322 321
331 338 341 339 337 338 337 336 333 328 330 330 330 329 329 330 330 328 327 328 325 326 325 327 326 326 326 325 323 323 322 321
331 336 340 337 329 333 336 335 330 324 322 324 330 330 329 329 329 327 326 325 324 327 326 326 325 326 325 324 323 322 321 321
330 334 337 337 328 332 336 335 331 326 323 325 325 328 327 328 328 327 324 322 323 326 325 325 326 325 324 323 322 322 321 322
326 332 334 337 333 335 336 333 330 327 326 325 325 326 327 328 327 327 323 322 323 325 325 325 325 324 323 323 321 321 322 321
324 328 332 335 336 335 335 334 332 329 328 326 327 328 327 327 326 327 324 321 323 325 324 324 324 323 323 322 321 320 321 321
323 326 330 334 336 335 335 334 333 331 331 327 326 326 328 327 325 325 325 321 322 324 323 322 323 322 323 320 319 317 321 321
322 326 329 332 335 334 335 334 332 332 331 328 325 324 328 326 325 325 326 325 322 323 324 323 322 323 321 319 320 320 321 320
321 327 329 331 334 334 335 333 333 332 330 328 328 325 326 326 324 325 324 325 324 324 324 324 324 323 322 320 320 321 321 320
321 324 329 330 334 334 334 334 334 332 330 328 327 326 324 324 324 324 324 324 325 324 324 323 323 323 322 320 319 320 320 321

GFSFLT2_850_thetae_111.txt.gz
Theta_e
320 320 320 320 320 322 325 328 329 329 328 328 331 334 336 335 333 331 330 331 331 330 328 326 328 327 329 330 331 331 331 331
320 321 321 320 320 321 323 327 329 330 330 329 329 330 333 335 334 332 331 332 330 330 328 327 327 327 326 326 329 330 329 329
321 320 321 321 320 321 322 325 327 330 331 330 329 330 331 332 334 332 331 331 329 329 328 326 326 327 327 326 328 328 328 329
323 321 321 321 321 321 322 323 326 328 330 331 331 330 330 331 333 333 332 330 329 329 328 327 326 327 328 325 326 326 328 328
327 324 322 321 321 321 322 323 324 326 329 330 331 331 331 331 332 333 332 329 330 328 328 327 327 327 327 327 326 325 328 328
334 330 325 324 322 323 322 323 322 323 324 329 331 332 332 332 332 332 333 333 331 329 328 328 327 326 326 328 326 325 325 327
336 334 330 328 330 327 324 326 325 329 327 328 332 333 333 332 332 332 332 333 332 331 330 328 327 325 326 327 326 326 325 327
338 337 334 333 335 331 330 330 328 330 330 329 329 331 332 332 333 334 333 333 332 332 331 329 328 326 326 326 327 325 325 327
339 338 336 335 333 332 337 339 333 329 327 329 322 328 332 332 333 333 332 333 332 331 330 328 328 327 326 326 327 325 325 327
338 339 337 336 335 333 332 338 335 330 329 326 321 328 332 332 332 333 333 332 331 331 330 329 329 327 326 327 326 325 327 327
330 339 338 337 337 338 335 335 337 331 330 327 325 328 330 332 331 333 332 332 331 331 331 329 328 327 327 327 325 325 327 327
322 334 337 337 337 338 339 338 335 335 333 331 326 321 325 329 328 331 331 331 330 330 330 329 328 327 328 326 324 325 327 326
319 331 336 339 340 340 337 337 337 337 334 333 329 325 321 324 327 329 330 330 330 331 329 328 329 327 326 327 325 324 326 326
321 327 333 339 338 336 334 333 338 337 336 333 330 327 321 321 325 328 329 329 329 329 330 330 327 325 325 326 325 325 324 324
319 325 330 338 337 338 338 338 338 337 336 334 331 328 323 323 326 328 328 329 328 328 328 328 326 323 326 325 324 323 323 324
326 324 333 337 336 336 336 334 332 337 337 335 333 329 325 325 325 325 328 327 327 327 325 322 325 325 326 325 323 323 322 323
324 333 335 337 336 332 332 336 334 333 338 336 334 328 327 328 325 324 326 326 326 326 322 322 323 326 326 325 323 323 322 321
327 324 328 331 333 333 325 331 332 332 337 336 334 329 328 328 324 326 325 327 326 324 322 323 323 325 325 324 322 322 321 320
328 328 325 329 330 332 325 331 332 330 335 336 332 330 328 325 324 325 328 325 325 325 322 323 325 325 324 324 322 322 321 320
326 328 328 324 330 332 329 331 334 332 334 335 332 329 328 327 324 325 325 325 324 325 322 324 322 322 323 322 321 321 321 320

GFSFLT2_850_thetae_114.txt.gz
Theta_e
319 319 319 319 319 320 323 324 327 328 328 329 332 334 335 335 334 332 331 332 331 330 329 326 326 329 330 331 332 331 331 332
320 320 320 320 320 320 321 321 323 328 328 328 329 331 334 334 334 332 330 331 331 330 328 325 326 327 329 330 330 331 330 330
320 320 320 320 320 320 321 321 321 325 328 329 329 329 330 333 333 333 330 331 331 330 329 327 326 327 327 327 328 330 329 328
321 320 320 320 320 321 321 320 320 321 325 328 329 329 330 331 333 333 331 331 331 329 329 328 326 326 326 327 327 328 328 326
323 321 321 321 321 321 321 321 320 319 322 326 329 329 330 331 331 333 332 331 329 330 329 328 328 326 327 327 326 327 326 326
328 324 322 321 321 321 321 321 321 319 319 323 326 329 330 331 331 332 333 332 330 330 329 328 328 327 327 327 327 325 326 327
333 328 324 322 321 321 321 322 322 320 319 321 323 326 329 331 331 332 332 332 332 332 331 329 328 327 327 326 327 326 326 326
336 334 330 326 323 323 323 323 323 321 322 321 320 326 328 331 331 331 332 332 331 332 332 331 330 329 327 325 326 327 326 326
337 338 335 333 328 326 326 325 326 325 324 324 324 324 325 329 331 331 332 333 332 332 332 332 330 329 327 325 326 326 326 326
337 338 338 336 334 331 327 328 327 330 326 326 325 324 324 329 331 332 333 333 332 332 331 331 330 328 328 327 326 326 327 326
327 335 338 337 336 334 332 331 330 330 329 327 326 325 321 326 330 331 332 333 332 332 331 330 330 329 329 328 326 327 327 325
319 324 330 335 338 338 337 337 337 335 333 328 328 326 323 323 329 331 331 332 333 331 331 331 330 329 329 327 326 327 325 325
320 320 323 335 340 339 340 338 336 337 336 332 331 329 325 324 327 328 330 332 332 331 331 329 328 327 327 326 326 325 325 324
320 320 320 327 338 339 339 339 337 336 336 334 333 332 327 323 323 324 326 330 331 329 328 327 327 326 326 325 326 326 324 326
319 321 320 323 333 340 337 337 336 336 337 336 334 334 331 324 323 324 324 327 329 329 328 327 326 325 325 324 325 325 325 325
324 329 335 332 334 340 338 337 333 329 330 333 333 334 332 327 323 325 324 327 327 328 328 329 326 325 324 324 324 324 324 324
327 336 339 339 339 339 337 339 334 331 330 330 333 335 334 330 325 327 327 326 327 327 328 329 329 327 325 322 324 323 324 323
326 326 331 338 338 335 335 336 335 334 333 333 333 335 335 333 330 327 328 325 326 326 327 326 325 321 322 323 324 323 324 324
322 324 326 329 336 334 333 332 332 331 333 333 333 335 335 335 332 326 329 327 326 325 326 325 322 321 322 325 325 323 323 323
321 322 325 328 327 332 333 333 332 332 331 331 331 334 334 334 331 327 330 328 324 325 326 323 322 322 323 325 324 323 322 322

GFSFLT2_850_thetae_120.txt.gz
Theta_e
323 323 324 325 326 327 326 327 327 327 328 329 332 334 335 335 332 330 332 331 329 329 327 327 326 326 328 330 331 332 331 331
322 321 321 323 325 326 325 326 326 327 329 330 331 333 334 335 334 331 330 331 329 329 327 326 325 326 328 330 331 331 331 331
321 321 321 322 323 324 325 325 326 328 329 330 331 332 333 334 334 333 330 330 330 329 328 326 325 326 327 328 330 331 330 331
320 320 320 321 322 322 323 324 325 326 327 328 329 330 331 332 333 333 332 330 331 330 328 326 326 326 327 327 327 328 329 330
319 319 319 320 320 321 320 322 323 323 324 326 328 329 330 331 332 332 332 331 330 331 329 327 326 326 326 327 327 326 327 329
319 319 319 320 320 320 319 320 320 321 321 323 326 328 329 329 330 331 332 331 331 330 330 329 327 326 327 326 326 326 326 327
320 320 320 320 320 320 320 320 320 320 319 320 323 326 327 328 329 330 331 331 331 330 330 330 329 328 327 327 326 326 326 326
321 320 320 320 320 320 320 320 320 320 320 319 320 321 325 326 327 328 330 331 332 331 331 330 329 329 328 328 327 327 326 326
327 324 322 321 320 320 320 320 320 320 321 320 320 319 321 325 326 327 328 330 330 332 332 331 329 329 329 328 327 327 327 326
332 331 329 326 324 322 321 320 320 321 321 322 321 321 320 322 324 326 328 330 330 331 332 332 331 330 330 330 328 328 327 325
333 333 334 334 332 332 330 323 322 321 322 322 322 322 321 321 322 324 328 330 330 331 331 331 332 331 331 330 330 328 327 326
334 334 335 336 337 336 335 332 327 324 322 322 323 322 323 323 323 323 326 330 330 330 331 332 332 332 331 331 330 329 327 326
334 336 336 336 338 338 338 337 336 333 328 326 326 324 327 326 325 325 325 328 330 330 330 330 330 330 329 329 329 328 328 327
320 331 333 330 331 329 334 336 337 337 334 332 330 329 330 327 327 326 323 326 330 331 329 328 328 327 329 328 328 325 327 325
316 317 317 320 325 329 337 339 339 339 338 336 335 333 332 330 328 328 327 325 328 330 329 328 327 327 323 325 327 326 325 323
320 318 317 317 323 327 332 334 335 333 336 338 337 336 333 333 330 330 328 327 325 328 329 327 327 327 326 326 327 325 324 323
326 324 321 321 330 336 329 332 333 332 334 334 336 334 335 336 334 332 331 330 327 325 329 330 326 327 327 325 326 327 326 324
327 330 332 333 333 334 337 337 336 335 335 334 336 335 333 333 333 332 332 331 329 326 329 327 327 326 328 327 325 325 326 325
322 323 328 332 332 333 335 337 339 334 335 335 335 335 333 330 330 331 331 332 331 326 327 327 327 325 324 325 325 325 325 323
317 319 321 324 328 331 333 334 336 338 333 335 335 334 332 328 328 331 330 331 332 329 325 327 326 326 324 324 324 324 323 323

GFSFLT2_850_thetae_126.txt.gz
Theta_e
336 337 337 336 336 335 335 334 334 333 333 333 333 333 331 329 328 330 331 329 329 328 325 326 328 327 326 326 329 331 337 335
337 338 337 337 337 336 335 334 334 334 333 332 333 333 332 331 329 330 331 330 329 328 327 327 327 326 326 327 329 330 338 337
341 339 337 337 337 337 336 335 334 334 333 332 333 333 333 332 331 331 331 331 329 329 327 327 326 326 326 328 329 335 337 336
343 340 339 341 342 339 336 335 335 334 333 332 333 337 337 337 335 332 332 332 330 329 328 327 327 331 327 327 333 336 335 336
343 343 340 338 340 339 337 339 337 335 333 331 334 339 340 338 338 333 333 332 332 330 329 328 332 334 336 335 335 334 334 334
342 342 341 339 340 339 332 338 332 334 337 333 338 337 339 339 340 339 339 337 338 335 335 335 330 327 334 335 334 334 333 333
339 341 340 339 337 339 337 339 335 329 327 328 330 337 338 337 339 340 340 338 338 339 338 334 332 332 332 333 334 334 333 332
339 339 336 333 332 334 334 330 337 328 326 326 328 332 337 338 337 337 337 336 339 339 337 333 335 335 333 331 332 333 332 332
333 338 336 328 326 327 330 330 328 324 325 326 326 326 327 328 331 335 331 337 336 336 336 333 334 334 334 333 331 328 330 332
322 335 338 328 326 325 333 333 324 327 323 324 326 326 325 324 328 330 331 333 333 333 332 331 334 334 334 333 333 332 332 332
319 331 337 336 326 327 331 331 324 323 322 323 322 325 325 322 323 326 328 327 329 331 331 332 333 334 334 334 333 333 332 332
317 327 338 338 334 331 336 334 323 323 322 322 322 323 324 323 323 323 325 327 327 328 330 331 332 332 332 334 332 331 331 331
316 323 336 338 338 336 335 335 328 326 324 323 323 323 324 324 324 323 323 324 325 325 328 330 332 332 332 331 331 330 330 330
316 324 330 338 339 337 333 333 334 333 333 328 323 323 323 324 325 325 324 325 326 327 327 330 332 332 332 331 331 330 328 329
315 322 334 338 340 339 337 336 337 336 335 333 331 328 327 324 325 328 327 325 325 325 326 327 330 331 331 330 330 328 328 329
313 319 327 338 339 340 340 339 339 339 338 338 337 334 332 330 327 331 332 326 326 326 327 327 329 330 332 330 328 329 328 328
313 317 320 329 337 339 339 339 341 341 338 336 335 335 336 334 333 331 329 327 327 328 329 329 330 330 331 330 327 329 329 327
311 315 317 321 333 336 330 335 339 338 338 339 341 336 333 336 337 334 332 330 329 332 330 330 330 330 332 331 330 329 328 327
306 313 319 321 326 332 337 335 335 335 336 335 336 337 337 334 338 339 336 334 333 331 330 326 324 329 330 330 329 328 328 327
304 311 315 321 324 326 329 331 331 333 333 335 336 335 336 336 337 337 335 333 334 332 329 326 324 327 331 330 330 329 329 328

GFSFLT2_850_thetae_129.txt.gz
Theta_e
349 339 337 336 336 335 334 334 333 333 333 333 332 331 329 328 328 329 330 330 329 329 327 327 327 328 327 327 329 330 337 337
348 344 337 337 337 336 336 335 334 334 333 333 333 332 330 329 329 329 331 330 330 329 327 326 328 327 326 327 329 330 336 337
348 348 345 339 338 337 336 336 335 335 334 333 333 332 331 330 330 330 331 331 330 329 328 328 327 327 327 328 329 335 335 335
348 346 349 346 345 343 337 336 336 335 335 333 333 337 338 340 335 332 332 331 331 329 329 328 328 330 327 328 328 336 334 335
348 347 348 348 345 344 343 342 338 337 335 336 334 340 341 340 340 337 334 332 331 330 329 328 328 336 335 333 334 335 334 334
343 346 347 347 344 343 343 342 342 341 341 339 339 340 340 340 339 338 338 338 337 336 335 334 336 337 336 337 335 335 334 334
326 343 345 345 344 343 342 341 341 340 340 340 340 340 340 340 339 339 338 340 338 337 337 336 337 337 335 336 334 334 335 333
319 334 343 344 344 342 341 341 341 339 341 341 338 340 340 340 339 338 339 339 337 336 335 335 337 335 335 335 334 334 334 333
317 325 340 342 343 342 341 340 340 341 339 336 331 337 339 339 340 339 340 338 337 337 336 335 335 335 334 334 334 334 334 333
316 318 331 340 342 342 340 340 340 339 339 338 328 328 339 340 340 339 339 339 336 336 337 336 335 335 335 334 334 333 333 332
313 315 318 335 340 340 340 339 338 338 338 339 333 327 331 339 332 332 337 337 336 335 337 337 336 335 334 334 334 333 332 332
318 318 318 327 338 338 340 339 338 338 337 338 339 332 326 337 336 339 330 337 336 332 334 332 336 335 335 334 333 333 333 332
317 319 319 319 338 337 340 338 338 337 334 336 338 338 323 325 332 333 325 328 329 327 330 338 334 334 334 334 333 333 333 333
315 316 316 319 334 337 338 338 337 334 333 333 325 330 326 322 323 333 327 327 329 329 329 337 331 331 333 332 332 332 332 330
310 313 317 317 327 337 337 339 337 336 335 335 334 328 329 323 322 329 328 325 328 327 336 336 330 326 334 332 331 329 328 331
308 308 313 321 326 334 337 337 337 336 336 335 336 336 338 335 326 328 332 330 330 334 332 334 333 330 335 331 331 330 330 329
305 307 311 318 325 332 336 337 338 336 336 337 338 338 339 338 338 335 335 335 335 334 332 332 332 331 332 330 329 332 331 331
303 306 312 316 324 331 335 337 336 337 336 337 341 340 338 338 338 337 336 336 336 334 333 331 328 330 330 330 331 330 329 330
300 303 306 312 318 325 329 333 336 334 331 321 337 336 336 337 340 338 337 337 336 335 334 331 330 330 328 326 330 330 327 329
298 300 301 307 316 322 321 326 326 327 321 320 334 335 335 334 335 337 336 338 336 336 336 333 333 330 327 325 328 332 331 329

GFSFLT2_850_thetae_132.txt.gz
Theta_e
350 348 343 336 335 334 333 332 333 333 332 332 332 332 331 329 328 328 329 329 329 330 330 329 328 327 327 326 327 329 337 337
348 347 342 337 335 335 334 333 333 333 333 333 332 332 331 329 328 329 330 330 330 329 329 327 326 327 325 324 326 329 333 336
346 346 344 337 336 336 335 334 334 333 333 333 333 332 331 330 329 329 330 332 331 330 328 327 326 326 324 324 326 330 336 334
344 345 345 342 337 337 336 335 335 334 333 333 333 332 332 331 330 330 330 333 332 330 329 328 327 325 325 325 330 334 335 335
333 344 345 345 343 344 340 336 336 335 335 334 333 333 334 334 336 333 332 332 332 331 330 328 327 329 335 331 331 335 335 335
318 342 344 345 345 345 345 341 337 336 335 335 334 333 336 338 337 337 336 333 332 332 331 329 328 335 336 334 335 335 334 334
317 318 343 343 343 345 346 345 341 338 337 336 337 336 337 337 338 337 336 336 336 335 335 334 331 333 336 336 334 334 335 335
313 316 318 336 340 343 344 343 343 342 340 339 337 338 337 338 338 338 336 337 335 335 336 336 334 335 335 332 334 332 332 334
311 311 315 321 338 340 341 341 342 343 342 342 341 337 338 338 337 338 337 337 337 335 335 336 334 334 333 333 332 333 334 332
312 311 311 314 333 336 336 340 343 340 342 339 340 341 336 342 340 336 336 336 337 336 335 335 334 333 333 333 332 333 333 332
314 312 318 319 321 337 337 338 339 341 342 342 336 336 335 339 341 338 337 338 340 337 335 335 334 333 333 334 333 332 332 331
312 314 315 318 319 322 337 336 339 340 341 341 338 332 332 335 340 339 341 336 337 336 335 336 336 334 336 333 332 332 332 331
312 313 314 315 316 318 327 334 333 338 341 340 339 336 332 331 339 337 338 338 336 335 335 335 337 333 334 336 335 334 332 331
306 310 312 312 312 315 321 326 334 335 339 338 339 338 337 330 334 336 334 330 338 338 340 335 333 333 333 333 333 332 332 330
300 305 309 310 307 310 315 321 334 334 337 339 339 338 334 335 329 338 336 328 328 335 340 337 331 332 333 333 331 331 329 330
299 302 307 308 309 310 313 318 326 335 336 339 337 337 338 334 334 329 335 331 327 328 332 329 330 331 335 332 330 332 331 331
298 300 302 307 309 310 314 316 322 334 336 338 337 336 334 335 332 330 335 335 331 330 334 334 331 333 334 330 331 328 329 331
298 299 300 304 309 311 314 318 323 333 335 338 337 338 337 336 336 335 331 335 334 333 333 336 334 333 332 330 326 327 326 328
297 298 299 303 307 309 314 320 327 331 334 330 332 336 337 336 338 338 337 336 336 338 337 335 337 333 332 330 327 325 328 328
295 297 297 300 304 306 314 321 325 329 329 329 324 322 322 323 333 336 335 336 335 336 337 336 335 334 332 332 329 329 329 330